South Armidale Weather

South Armidale Weather


Today's Observations
Date Time Temperature Humidity Dewpoint Wind Speed High Gust Wind Bearing Rainfall Rate Total Rainfall Pressure Gust Wind Chill Heat Index UV Index
23/10/19 23:53 15.6 47 4.3 0.0 0.0 0 0.0 0.0 1022.0 0.0 15.6 15.6 0.0
23/10/19 23:52 15.6 47 4.3 0.0 0.0 0 0.0 0.0 1022.0 0.0 15.6 15.6 0.0
23/10/19 23:51 15.6 47 4.3 0.0 0.0 0 0.0 0.0 1022.0 0.0 15.6 15.6 0.0
23/10/19 23:50 15.6 47 4.3 0.0 0.0 0 0.0 0.0 1022.0 0.0 15.6 15.6 0.0
23/10/19 23:49 15.7 47 4.4 0.0 0.0 0 0.0 0.0 1022.0 0.0 15.7 15.7 0.0
23/10/19 23:48 15.7 47 4.4 0.0 0.0 0 0.0 0.0 1022.0 0.0 15.7 15.7 0.0
23/10/19 23:47 15.7 47 4.4 0.0 0.0 0 0.0 0.0 1022.0 0.0 15.7 15.7 0.0
23/10/19 23:45 15.8 47 4.5 0.0 0.0 0 0.0 0.0 1022.0 0.0 15.8 15.8 0.0
23/10/19 23:44 15.8 47 4.5 0.0 0.0 0 0.0 0.0 1022.0 0.0 15.8 15.8 0.0
23/10/19 23:43 15.8 47 4.5 0.0 0.0 0 0.0 0.0 1022.0 0.0 15.8 15.8 0.0
23/10/19 23:42 15.8 47 4.5 0.0 0.0 0 0.0 0.0 1022.0 0.0 15.8 15.8 0.0
23/10/19 23:41 15.8 47 4.5 0.0 0.0 0 0.0 0.0 1022.0 0.0 15.8 15.8 0.0
23/10/19 23:40 15.8 47 4.5 0.0 0.0 0 0.0 0.0 1022.0 0.0 15.8 15.8 0.0
23/10/19 23:39 15.9 47 4.6 0.0 0.0 0 0.0 0.0 1022.0 0.0 15.9 15.9 0.0
23/10/19 23:38 15.9 47 4.6 0.0 0.0 0 0.0 0.0 1022.0 0.0 15.9 15.9 0.0
23/10/19 23:37 15.9 47 4.6 0.0 0.0 0 0.0 0.0 1022.0 0.0 15.9 15.9 0.0
23/10/19 23:36 15.9 47 4.6 0.0 0.0 0 0.0 0.0 1022.0 0.0 15.9 15.9 0.0
23/10/19 23:35 15.9 47 4.6 0.0 0.0 0 0.0 0.0 1022.0 0.0 15.9 15.9 0.0
23/10/19 23:34 16.0 47 4.7 0.0 0.0 0 0.0 0.0 1022.0 0.0 16.0 16.0 0.0
23/10/19 23:33 16.0 47 4.7 0.0 0.0 0 0.0 0.0 1022.0 0.0 16.0 16.0 0.0
23/10/19 23:32 16.0 46 4.4 0.0 0.0 0 0.0 0.0 1022.0 0.0 16.0 16.0 0.0
23/10/19 23:30 16.0 46 4.4 0.0 0.0 0 0.0 0.0 1022.0 0.0 16.0 16.0 0.0
23/10/19 23:29 16.1 46 4.5 0.0 0.0 0 0.0 0.0 1022.0 0.0 16.1 16.1 0.0
23/10/19 23:28 16.1 46 4.5 0.0 0.0 0 0.0 0.0 1022.0 0.0 16.1 16.1 0.0
23/10/19 23:27 16.1 46 4.5 0.0 0.0 0 0.0 0.0 1022.0 0.0 16.1 16.1 0.0
23/10/19 23:26 16.1 46 4.5 0.0 0.0 0 0.0 0.0 1022.0 0.0 16.1 16.1 0.0
23/10/19 23:25 16.0 46 4.4 0.0 0.0 0 0.0 0.0 1022.0 0.0 16.0 16.0 0.0
23/10/19 23:24 16.0 46 4.4 0.0 0.0 0 0.0 0.0 1022.0 0.0 16.0 16.0 0.0
23/10/19 23:23 16.1 46 4.5 0.0 0.0 0 0.0 0.0 1022.0 0.0 16.1 16.1 0.0
23/10/19 23:22 16.1 46 4.5 0.0 0.0 0 0.0 0.0 1022.0 0.0 16.1 16.1 0.0
23/10/19 23:21 16.0 46 4.4 0.0 0.0 0 0.0 0.0 1022.0 0.0 16.0 16.0 0.0
23/10/19 23:20 16.0 46 4.4 0.0 0.0 0 0.0 0.0 1022.0 0.0 16.0 16.0 0.0
23/10/19 23:19 16.0 46 4.4 0.0 0.0 0 0.0 0.0 1022.0 0.0 16.0 16.0 0.0
23/10/19 23:18 16.0 45 4.1 0.0 0.0 0 0.0 0.0 1022.0 0.0 16.1 16.0 0.0
23/10/19 23:17 16.1 45 4.2 0.0 0.0 0 0.0 0.0 1022.0 0.0 16.1 16.1 0.0
23/10/19 23:15 16.0 45 4.1 0.0 0.0 0 0.0 0.0 1022.0 0.0 16.0 16.0 0.0
23/10/19 23:14 16.0 45 4.1 0.0 0.0 0 0.0 0.0 1022.0 0.0 16.0 16.0 0.0
23/10/19 23:13 16.0 45 4.1 0.0 0.0 0 0.0 0.0 1022.0 0.0 16.0 16.0 0.0
23/10/19 23:12 16.0 45 4.1 0.0 0.0 0 0.0 0.0 1022.0 0.0 16.0 16.0 0.0
23/10/19 23:11 16.0 45 4.1 0.0 0.0 0 0.0 0.0 1022.0 0.0 16.0 16.0 0.0
23/10/19 23:10 16.0 45 4.1 0.0 0.0 0 0.0 0.0 1022.0 0.0 15.9 16.0 0.0
23/10/19 23:09 16.0 44 3.7 0.0 0.0 0 0.0 0.0 1022.0 0.0 16.0 16.0 0.0
23/10/19 23:08 16.0 44 3.7 0.0 0.0 0 0.0 0.0 1022.0 0.0 16.0 16.0 0.0
23/10/19 23:07 16.0 44 3.7 0.0 0.0 0 0.0 0.0 1022.0 0.0 16.0 16.0 0.0
23/10/19 23:06 16.0 44 3.7 0.0 0.0 0 0.0 0.0 1022.0 0.0 16.0 16.0 0.0
23/10/19 23:05 16.0 44 3.7 0.0 0.0 0 0.0 0.0 1022.0 0.0 16.0 16.0 0.0
23/10/19 23:04 16.0 44 3.7 0.0 0.0 0 0.0 0.0 1022.0 0.0 16.0 16.0 0.0
23/10/19 23:03 16.0 44 3.7 0.0 0.0 0 0.0 0.0 1022.0 0.0 16.0 16.0 0.0
23/10/19 23:02 16.0 44 3.7 0.0 0.0 0 0.0 0.0 1022.0 0.0 16.0 16.0 0.0
23/10/19 23:00 16.1 44 3.8 0.0 0.0 0 0.0 0.0 1022.0 0.0 16.1 16.1 0.0
23/10/19 22:59 16.1 44 3.8 0.0 0.0 0 0.0 0.0 1022.0 0.0 16.1 16.1 0.0
23/10/19 22:58 16.1 44 3.8 0.0 0.0 0 0.0 0.0 1022.0 0.0 16.1 16.1 0.0
23/10/19 22:57 16.2 44 3.9 0.0 0.0 0 0.0 0.0 1022.0 0.0 16.2 16.2 0.0
23/10/19 22:56 16.2 44 3.9 0.0 0.0 0 0.0 0.0 1022.0 0.0 16.2 16.2 0.0
23/10/19 22:55 16.2 44 3.9 0.0 0.0 0 0.0 0.0 1022.0 0.0 16.2 16.2 0.0
23/10/19 22:54 16.2 44 3.9 0.0 0.0 0 0.0 0.0 1022.0 0.0 16.2 16.2 0.0
23/10/19 22:53 16.2 44 3.9 0.0 0.0 0 0.0 0.0 1022.0 0.0 16.2 16.2 0.0
23/10/19 22:52 16.3 44 4.0 0.0 0.0 0 0.0 0.0 1022.0 0.0 16.3 16.3 0.0
23/10/19 22:51 16.3 44 4.0 0.0 0.0 0 0.0 0.0 1022.0 0.0 16.3 16.3 0.0
23/10/19 22:50 16.3 44 4.0 0.0 0.0 0 0.0 0.0 1022.0 0.0 16.3 16.3 0.0
23/10/19 22:49 16.4 44 4.1 0.0 0.0 0 0.0 0.0 1022.0 0.0 16.4 16.4 0.0
23/10/19 22:48 16.4 44 4.1 0.0 0.0 0 0.0 0.0 1022.0 0.0 16.4 16.4 0.0
23/10/19 22:47 16.5 44 4.2 0.0 0.0 0 0.0 0.0 1022.0 0.0 16.5 16.5 0.0
23/10/19 22:45 16.5 44 4.2 0.0 0.0 0 0.0 0.0 1022.0 0.0 16.5 16.5 0.0
23/10/19 22:44 16.6 44 4.3 0.0 0.0 0 0.0 0.0 1022.0 0.0 16.6 16.6 0.0
23/10/19 22:43 16.6 44 4.3 0.0 0.0 0 0.0 0.0 1022.0 0.0 16.6 16.6 0.0
23/10/19 22:42 16.6 44 4.3 0.0 0.0 0 0.0 0.0 1022.0 0.0 16.6 16.6 0.0
23/10/19 22:41 16.7 44 4.4 0.0 0.0 0 0.0 0.0 1022.0 0.0 16.7 16.7 0.0
23/10/19 22:40 16.7 44 4.4 0.0 0.0 0 0.0 0.0 1022.0 0.0 16.7 16.7 0.0
23/10/19 22:39 16.7 44 4.4 0.0 0.0 0 0.0 0.0 1022.0 0.0 16.8 16.7 0.0
23/10/19 22:38 16.8 44 4.5 0.0 0.0 0 0.0 0.0 1022.0 0.0 16.8 16.8 0.0
23/10/19 22:37 16.8 44 4.5 0.0 0.0 0 0.0 0.0 1022.0 0.0 16.8 16.8 0.0
23/10/19 22:36 16.8 43 4.1 0.0 0.0 0 0.0 0.0 1022.0 0.0 16.8 16.8 0.0
23/10/19 22:35 16.8 44 4.5 0.0 0.0 0 0.0 0.0 1022.0 0.0 16.8 16.8 0.0
23/10/19 22:34 16.8 43 4.1 0.0 0.0 0 0.0 0.0 1022.0 0.0 16.8 16.8 0.0
23/10/19 22:33 16.8 43 4.1 0.0 0.0 0 0.0 0.0 1022.0 0.0 16.8 16.8 0.0
23/10/19 22:32 16.8 42 3.8 0.0 0.0 0 0.0 0.0 1022.0 0.0 16.8 16.8 0.0
23/10/19 22:30 16.9 42 3.9 0.0 0.0 0 0.0 0.0 1022.0 0.0 16.9 16.9 0.0
23/10/19 22:29 17.0 42 4.0 0.0 0.0 0 0.0 0.0 1022.0 0.0 17.0 17.0 0.0
23/10/19 22:28 17.0 42 4.0 0.0 0.0 0 0.0 0.0 1022.0 0.0 17.0 17.0 0.0
23/10/19 22:27 16.9 40 3.2 0.0 0.0 0 0.0 0.0 1022.0 0.0 16.9 16.9 0.0
23/10/19 22:26 16.9 40 3.2 0.0 0.0 0 0.0 0.0 1022.0 0.0 16.9 16.9 0.0
23/10/19 22:25 16.9 40 3.2 0.0 0.0 0 0.0 0.0 1022.0 0.0 16.9 16.9 0.0
23/10/19 22:24 16.9 40 3.2 0.0 0.0 0 0.0 0.0 1022.0 0.0 16.9 16.9 0.0
23/10/19 22:23 16.9 40 3.2 0.0 0.0 0 0.0 0.0 1022.0 0.0 16.9 16.9 0.0
23/10/19 22:22 16.9 40 3.2 0.0 0.0 0 0.0 0.0 1022.0 0.0 16.9 16.9 0.0
23/10/19 22:21 16.9 40 3.2 0.0 0.0 0 0.0 0.0 1022.0 0.0 16.9 16.9 0.0
23/10/19 22:20 16.9 40 3.2 0.0 0.0 0 0.0 0.0 1022.0 0.0 16.9 16.9 0.0
23/10/19 22:19 16.9 40 3.2 0.0 0.0 0 0.0 0.0 1022.0 0.0 16.9 16.9 0.0
23/10/19 22:18 16.9 39 2.8 0.0 0.0 0 0.0 0.0 1022.0 0.0 16.9 16.9 0.0
23/10/19 22:17 17.0 39 2.9 0.0 0.0 0 0.0 0.0 1022.0 0.0 17.0 17.0 0.0
23/10/19 22:15 16.9 39 2.8 0.0 0.0 0 0.0 0.0 1022.0 0.0 16.9 16.9 0.0
23/10/19 22:14 16.9 39 2.8 0.0 0.0 0 0.0 0.0 1022.0 0.0 16.9 16.9 0.0
23/10/19 22:13 16.9 39 2.8 0.0 0.0 0 0.0 0.0 1022.0 0.0 16.9 16.9 0.0
23/10/19 22:12 16.9 39 2.8 0.0 0.0 0 0.0 0.0 1022.0 0.0 16.9 16.9 0.0
23/10/19 22:11 16.9 38 2.5 0.0 0.0 0 0.0 0.0 1022.0 0.0 16.9 16.9 0.0
23/10/19 22:10 16.9 38 2.5 0.0 0.0 0 0.0 0.0 1022.0 0.0 16.9 16.9 0.0
23/10/19 22:09 17.0 37 2.2 0.0 0.0 0 0.0 0.0 1022.0 0.0 17.0 17.0 0.0
23/10/19 22:08 17.0 37 2.2 0.0 0.0 0 0.0 0.0 1022.0 0.0 17.0 17.0 0.0
23/10/19 22:07 16.9 38 2.5 0.0 0.0 0 0.0 0.0 1022.0 0.0 16.9 16.9 0.0
23/10/19 22:06 16.9 38 2.5 0.0 0.0 0 0.0 0.0 1022.0 0.0 16.9 16.9 0.0
23/10/19 22:05 16.9 38 2.5 0.0 0.0 0 0.0 0.0 1022.0 0.0 16.9 16.9 0.0
23/10/19 22:04 16.9 37 2.1 0.0 0.0 0 0.0 0.0 1022.0 0.0 16.9 16.9 0.0
23/10/19 22:03 17.0 37 2.2 0.0 0.0 0 0.0 0.0 1022.0 0.0 17.0 17.0 0.0
23/10/19 22:02 17.0 37 2.2 0.0 0.0 0 0.0 0.0 1022.0 0.0 17.0 17.0 0.0
23/10/19 22:00 17.0 37 2.2 0.0 0.0 0 0.0 0.0 1022.0 0.0 17.0 17.0 0.0
23/10/19 21:59 17.0 37 2.2 0.0 0.0 0 0.0 0.0 1022.0 0.0 17.0 17.0 0.0
23/10/19 21:58 17.0 37 2.2 0.0 0.0 0 0.0 0.0 1022.0 0.0 17.0 17.0 0.0
23/10/19 21:57 17.1 37 2.3 0.0 0.0 0 0.0 0.0 1022.0 0.0 17.1 17.1 0.0
23/10/19 21:56 17.1 37 2.3 0.0 0.0 0 0.0 0.0 1022.0 0.0 17.1 17.1 0.0
23/10/19 21:55 17.1 37 2.3 0.0 0.0 0 0.0 0.0 1022.0 0.0 17.1 17.1 0.0
23/10/19 21:54 17.1 37 2.3 0.0 0.0 0 0.0 0.0 1022.0 0.0 17.1 17.1 0.0
23/10/19 21:53 17.1 36 1.9 0.0 0.0 0 0.0 0.0 1022.0 0.0 17.1 17.1 0.0
23/10/19 21:52 17.1 36 1.9 0.0 0.0 0 0.0 0.0 1022.0 0.0 17.1 17.1 0.0
23/10/19 21:51 17.2 36 2.0 0.0 0.0 0 0.0 0.0 1022.0 0.0 17.2 17.2 0.0
23/10/19 21:50 17.2 36 2.0 0.0 0.0 0 0.0 0.0 1022.0 0.0 17.2 17.2 0.0
23/10/19 21:49 17.2 36 2.0 0.0 0.0 0 0.0 0.0 1022.0 0.0 17.2 17.2 0.0
23/10/19 21:48 17.2 36 2.0 0.0 0.0 0 0.0 0.0 1022.0 0.0 17.2 17.2 0.0
23/10/19 21:47 17.2 36 2.0 0.0 0.0 0 0.0 0.0 1022.0 0.0 17.3 17.2 0.0
23/10/19 21:45 17.3 36 2.1 0.0 0.0 0 0.0 0.0 1022.0 0.0 17.3 17.3 0.0
23/10/19 21:44 17.4 36 2.2 0.0 0.0 0 0.0 0.0 1022.0 0.0 17.4 17.4 0.0
23/10/19 21:43 17.4 36 2.2 0.0 0.0 0 0.0 0.0 1022.0 0.0 17.4 17.4 0.0
23/10/19 21:42 17.4 36 2.2 0.0 0.0 0 0.0 0.0 1022.0 0.0 17.4 17.4 0.0
23/10/19 21:41 17.5 36 2.2 0.0 0.0 0 0.0 0.0 1022.0 0.0 17.5 17.5 0.0
23/10/19 21:40 17.5 36 2.2 0.0 0.0 0 0.0 0.0 1022.0 0.0 17.5 17.5 0.0
23/10/19 21:39 17.5 36 2.2 0.0 0.0 0 0.0 0.0 1022.0 0.0 17.5 17.5 0.0
23/10/19 21:38 17.5 36 2.2 0.0 0.0 0 0.0 0.0 1022.0 0.0 17.5 17.5 0.0
23/10/19 21:37 17.5 36 2.2 0.0 0.0 0 0.0 0.0 1022.0 0.0 17.5 17.5 0.0
23/10/19 21:36 17.6 36 2.3 0.0 0.0 0 0.0 0.0 1022.0 0.0 17.6 17.6 0.0
23/10/19 21:35 17.5 36 2.2 0.0 0.0 0 0.0 0.0 1022.0 0.0 17.5 17.5 0.0
23/10/19 21:34 17.6 36 2.3 0.0 0.0 0 0.0 0.0 1022.0 0.0 17.6 17.6 0.0
23/10/19 21:33 17.6 35 1.9 0.0 0.0 0 0.0 0.0 1022.0 0.0 17.6 17.6 0.0
23/10/19 21:32 17.6 35 1.9 0.0 0.0 0 0.0 0.0 1022.0 0.0 17.6 17.6 0.0
23/10/19 21:30 17.6 35 1.9 0.0 0.0 0 0.0 0.0 1022.0 0.0 17.6 17.6 0.0
23/10/19 21:29 17.6 35 1.9 0.0 0.0 0 0.0 0.0 1022.0 0.0 17.6 17.6 0.0
23/10/19 21:28 17.6 35 1.9 0.0 0.0 0 0.0 0.0 1022.0 0.0 17.6 17.6 0.0
23/10/19 21:27 17.6 35 1.9 0.0 0.0 0 0.0 0.0 1022.0 0.0 17.6 17.6 0.0
23/10/19 21:26 17.7 35 2.0 0.0 0.0 0 0.0 0.0 1022.0 0.0 17.7 17.7 0.0
23/10/19 21:25 17.7 35 2.0 0.0 0.0 0 0.0 0.0 1022.0 0.0 17.7 17.7 0.0
23/10/19 21:24 17.7 35 2.0 0.0 0.0 0 0.0 0.0 1022.0 0.0 17.7 17.7 0.0
23/10/19 21:23 17.8 35 2.1 0.0 0.0 0 0.0 0.0 1022.0 0.0 17.8 17.8 0.0
23/10/19 21:22 17.8 35 2.1 0.0 0.0 0 0.0 0.0 1022.0 0.0 17.8 17.8 0.0
23/10/19 21:21 17.9 35 2.2 0.0 0.0 0 0.0 0.0 1022.0 0.0 17.9 17.9 0.0
23/10/19 21:20 17.9 35 2.2 0.0 0.0 0 0.0 0.0 1022.0 0.0 17.9 17.9 0.0
23/10/19 21:19 17.9 35 2.2 0.0 0.0 0 0.0 0.0 1022.0 0.0 17.9 17.9 0.0
23/10/19 21:18 17.9 35 2.2 0.0 0.0 0 0.0 0.0 1022.0 0.0 17.9 17.9 0.0
23/10/19 21:17 18.0 35 2.3 0.0 0.0 0 0.0 0.0 1022.0 0.0 18.0 18.0 0.0
23/10/19 21:15 18.0 35 2.3 0.0 0.0 0 0.0 0.0 1022.0 0.0 18.0 18.0 0.0
23/10/19 21:14 18.0 34 1.9 0.0 0.0 0 0.0 0.0 1022.0 0.0 18.0 18.0 0.0
23/10/19 21:13 18.0 34 1.9 0.0 0.0 0 0.0 0.0 1022.0 0.0 18.0 18.0 0.0
23/10/19 21:12 18.1 34 2.0 0.0 0.0 0 0.0 0.0 1022.0 0.0 18.1 18.1 0.0
23/10/19 21:11 18.1 34 2.0 0.0 0.0 0 0.0 0.0 1022.0 0.0 18.1 18.1 0.0
23/10/19 21:10 18.2 35 2.5 0.0 0.0 0 0.0 0.0 1022.0 0.0 18.2 18.2 0.0
23/10/19 21:09 18.2 35 2.5 0.0 0.0 0 0.0 0.0 1022.0 0.0 18.2 18.2 0.0
23/10/19 21:08 18.2 35 2.5 0.0 0.0 0 0.0 0.0 1022.0 0.0 18.2 18.2 0.0
23/10/19 21:07 18.3 35 2.6 0.0 0.0 0 0.0 0.0 1022.0 0.0 18.3 18.3 0.0
23/10/19 21:06 18.3 35 2.6 0.0 0.0 0 0.0 0.0 1022.0 0.0 18.3 18.3 0.0
23/10/19 21:05 18.3 35 2.6 0.0 0.0 0 0.0 0.0 1022.0 0.0 18.3 18.3 0.0
23/10/19 21:04 18.3 35 2.6 0.0 0.0 0 0.0 0.0 1022.0 0.0 18.3 18.3 0.0
23/10/19 21:03 18.3 34 2.2 0.0 0.0 0 0.0 0.0 1022.0 0.0 18.3 18.3 0.0
23/10/19 21:02 18.3 34 2.2 0.0 0.0 0 0.0 0.0 1022.0 0.0 18.3 18.3 0.0
23/10/19 21:00 18.4 34 2.2 0.0 0.0 0 0.0 0.0 1022.0 0.0 18.4 18.4 0.0
23/10/19 20:59 18.4 34 2.2 0.0 0.0 0 0.0 0.0 1022.0 0.0 18.4 18.4 0.0
23/10/19 20:58 18.4 34 2.2 0.0 0.0 0 0.0 0.0 1022.0 0.0 18.4 18.4 0.0
23/10/19 20:57 18.4 34 2.2 0.0 0.0 0 0.0 0.0 1022.0 0.0 18.4 18.4 0.0
23/10/19 20:56 18.4 34 2.2 0.0 0.0 0 0.0 0.0 1022.0 0.0 18.4 18.4 0.0
23/10/19 20:55 18.4 34 2.2 0.0 0.0 0 0.0 0.0 1022.0 0.0 18.4 18.4 0.0
23/10/19 20:54 18.4 34 2.2 0.0 0.0 0 0.0 0.0 1022.0 0.0 18.4 18.4 0.0
23/10/19 20:53 18.4 34 2.2 0.0 0.0 0 0.0 0.0 1022.0 0.0 18.4 18.4 0.0
23/10/19 20:52 18.5 34 2.3 0.0 0.0 0 0.0 0.0 1021.0 0.0 18.5 18.5 0.0
23/10/19 20:51 18.5 34 2.3 0.0 0.0 0 0.0 0.0 1021.0 0.0 18.5 18.5 0.0
23/10/19 20:50 18.5 34 2.3 0.0 0.0 0 0.0 0.0 1021.0 0.0 18.5 18.5 0.0
23/10/19 20:49 18.5 34 2.3 0.0 0.0 0 0.0 0.0 1021.0 0.0 18.5 18.5 0.0
23/10/19 20:48 18.5 34 2.3 0.0 0.0 0 0.0 0.0 1021.0 0.0 18.5 18.5 0.0
23/10/19 20:47 18.5 34 2.3 0.0 0.0 0 0.0 0.0 1021.0 0.0 18.5 18.5 0.0
23/10/19 20:45 18.5 34 2.3 0.0 0.0 0 0.0 0.0 1021.0 0.0 18.5 18.5 0.0
23/10/19 20:44 18.6 34 2.4 0.0 0.0 0 0.0 0.0 1021.0 0.0 18.6 18.6 0.0
23/10/19 20:43 18.6 34 2.4 0.0 0.0 0 0.0 0.0 1021.0 0.0 18.6 18.6 0.0
23/10/19 20:42 18.6 34 2.4 0.0 0.0 0 0.0 0.0 1021.0 0.0 18.6 18.6 0.0
23/10/19 20:41 18.6 34 2.4 0.0 0.0 0 0.0 0.0 1021.0 0.0 18.6 18.6 0.0
23/10/19 20:40 18.6 34 2.4 0.0 0.0 0 0.0 0.0 1021.0 0.0 18.6 18.6 0.0
23/10/19 20:39 18.6 34 2.4 0.0 0.0 0 0.0 0.0 1021.0 0.0 18.6 18.6 0.0
23/10/19 20:38 18.6 34 2.4 0.0 0.0 0 0.0 0.0 1021.0 0.0 18.7 18.6 0.0
23/10/19 20:37 18.6 34 2.4 0.0 0.0 0 0.0 0.0 1021.0 0.0 18.6 18.6 0.0
23/10/19 20:36 18.6 33 2.0 0.0 0.0 0 0.0 0.0 1021.0 0.0 18.6 18.6 0.0
23/10/19 20:35 18.6 33 2.0 0.0 0.0 0 0.0 0.0 1021.0 0.0 18.6 18.6 0.0
23/10/19 20:34 18.6 33 2.0 0.0 0.0 0 0.0 0.0 1021.0 0.0 18.6 18.6 0.0
23/10/19 20:33 18.7 33 2.1 0.0 0.0 0 0.0 0.0 1021.0 0.0 18.7 18.7 0.0
23/10/19 20:32 18.7 33 2.1 0.0 0.0 0 0.0 0.0 1021.0 0.0 18.7 18.7 0.0
23/10/19 20:20 18.9 33 2.3 0.0 0.0 0 0.0 0.0 1021.0 0.0 18.9 18.9 0.0
23/10/19 20:19 19.0 32 1.9 0.0 0.0 0 0.0 0.0 1021.0 0.0 19.0 19.0 0.0
23/10/19 20:18 19.0 32 1.9 0.0 0.0 0 0.0 0.0 1021.0 0.0 19.0 19.0 0.0
23/10/19 20:17 19.0 32 1.9 0.0 0.0 0 0.0 0.0 1021.0 0.0 19.0 19.0 0.0
23/10/19 20:14 19.1 31 1.6 0.0 0.0 0 0.0 0.0 1021.0 0.0 19.1 19.1 0.0
23/10/19 20:13 19.1 31 1.6 0.0 0.0 0 0.0 0.0 1021.0 0.0 19.1 19.1 0.0
23/10/19 20:12 19.1 31 1.6 0.0 0.0 0 0.0 0.0 1021.0 0.0 19.1 19.1 0.0
23/10/19 20:11 19.2 31 1.6 0.0 0.0 0 0.0 0.0 1021.0 0.0 19.2 19.2 0.0
23/10/19 20:10 19.2 31 1.6 0.0 0.0 0 0.0 0.0 1021.0 0.0 19.2 19.2 0.0
23/10/19 20:09 19.2 31 1.6 0.0 0.0 0 0.0 0.0 1021.0 0.0 19.2 19.2 0.0
23/10/19 20:08 19.2 30 1.2 0.0 0.0 0 0.0 0.0 1021.0 0.0 19.3 19.2 0.0
23/10/19 20:07 19.3 30 1.3 0.0 0.0 0 0.0 0.0 1021.0 0.0 19.3 19.3 0.0
23/10/19 20:06 19.3 30 1.3 0.0 0.0 0 0.0 0.0 1021.0 0.0 19.3 19.3 0.0
23/10/19 20:05 19.3 30 1.3 0.0 0.0 0 0.0 0.0 1021.0 0.0 19.3 19.3 0.0
23/10/19 20:04 19.4 30 1.4 0.0 0.0 0 0.0 0.0 1021.0 0.0 19.4 19.4 0.0
23/10/19 20:03 19.4 29 0.9 0.0 0.0 0 0.0 0.0 1021.0 0.0 19.4 19.4 0.0
23/10/19 20:02 19.4 29 0.9 0.0 0.0 0 0.0 0.0 1021.0 0.0 19.4 19.4 0.0
23/10/19 20:00 19.5 29 1.0 0.0 0.0 0 0.0 0.0 1021.0 0.0 19.5 19.5 0.0
23/10/19 19:59 19.5 29 1.0 0.0 0.0 0 0.0 0.0 1021.0 0.0 19.5 19.5 0.0
23/10/19 19:58 19.6 29 1.1 0.0 0.0 0 0.0 0.0 1021.0 0.0 19.6 19.6 0.0
23/10/19 19:57 19.6 29 1.1 0.0 0.0 0 0.0 0.0 1021.0 0.0 19.6 19.6 0.0
23/10/19 19:56 19.7 29 1.1 0.0 0.0 0 0.0 0.0 1021.0 0.0 19.7 19.7 0.0
23/10/19 19:55 19.7 28 0.7 0.0 0.0 0 0.0 0.0 1021.0 0.0 19.7 19.7 0.0
23/10/19 19:54 19.7 28 0.7 0.0 0.0 0 0.0 0.0 1021.0 0.0 19.7 19.7 0.0
23/10/19 19:53 19.8 28 0.7 0.0 0.0 0 0.0 0.0 1021.0 0.0 19.8 19.8 0.0
23/10/19 19:52 19.8 28 0.7 0.0 0.0 0 0.0 0.0 1021.0 0.0 19.8 19.8 0.0
23/10/19 19:51 19.9 28 0.8 0.0 0.0 0 0.0 0.0 1021.0 0.0 19.9 19.9 0.0
23/10/19 19:50 19.9 28 0.8 0.0 0.0 0 0.0 0.0 1021.0 0.0 19.9 19.9 0.0
23/10/19 19:49 20.0 28 0.9 0.0 0.0 0 0.0 0.0 1021.0 0.0 20.0 20.0 0.0
23/10/19 19:48 20.0 28 0.9 0.0 0.0 0 0.0 0.0 1021.0 0.0 20.0 20.0 0.0
23/10/19 19:47 20.0 28 0.9 0.0 0.0 0 0.0 0.0 1021.0 0.0 20.0 20.0 0.0
23/10/19 19:45 20.1 28 1.0 0.0 0.0 0 0.0 0.0 1021.0 0.0 20.1 20.1 0.0
23/10/19 19:44 20.1 27 0.5 0.0 0.0 0 0.0 0.0 1021.0 0.0 20.1 20.1 0.0
23/10/19 19:43 20.1 27 0.5 0.0 0.0 0 0.0 0.0 1021.0 0.0 20.1 20.1 0.0
23/10/19 19:42 20.1 26 0.0 0.0 0.0 0 0.0 0.0 1021.0 0.0 20.1 20.1 0.0
23/10/19 19:41 20.2 26 0.1 0.0 0.0 0 0.0 0.0 1021.0 0.0 20.2 20.2 0.0
23/10/19 19:40 20.2 26 0.1 0.0 0.0 0 0.0 0.0 1021.0 0.0 20.2 20.2 0.0
23/10/19 19:39 20.2 26 0.1 0.0 0.0 0 0.0 0.0 1021.0 0.0 20.2 20.2 0.0
23/10/19 19:38 20.3 26 0.1 0.0 0.0 0 0.0 0.0 1021.0 0.0 20.3 20.3 0.0
23/10/19 19:37 20.3 26 0.1 0.0 0.0 0 0.0 0.0 1021.0 0.0 20.3 20.3 0.0
23/10/19 19:36 20.3 26 0.1 0.0 0.0 0 0.0 0.0 1021.0 0.0 20.3 20.3 0.0
23/10/19 19:35 20.4 26 0.2 0.0 0.0 0 0.0 0.0 1021.0 0.0 20.4 20.4 0.0
23/10/19 19:34 20.4 26 0.2 0.0 0.0 0 0.0 0.0 1021.0 0.0 20.4 20.4 0.0
23/10/19 19:33 20.4 25 -0.3 0.0 0.0 0 0.0 0.0 1021.0 0.0 20.4 20.4 0.0
23/10/19 19:32 20.5 25 -0.2 0.0 0.0 0 0.0 0.0 1021.0 0.0 20.5 20.5 0.0
23/10/19 19:26 20.7 24 -0.6 0.0 0.0 0 0.0 0.0 1021.0 0.0 20.7 20.7 0.0
23/10/19 19:25 20.7 24 -0.6 0.0 0.0 0 0.0 0.0 1021.0 0.0 20.7 20.7 0.0
23/10/19 19:24 20.8 23 -1.1 0.0 0.0 0 0.0 0.0 1021.0 0.0 20.8 20.8 0.0
23/10/19 19:23 20.8 23 -1.1 0.0 0.0 0 0.0 0.0 1021.0 0.0 20.9 20.8 0.0
23/10/19 19:22 20.9 23 -1.0 0.0 0.0 0 0.0 0.0 1021.0 0.0 20.9 20.9 0.0
23/10/19 19:21 21.0 23 -0.9 0.0 0.0 0 0.0 0.0 1021.0 0.0 21.0 21.0 0.0
23/10/19 19:20 21.0 23 -0.9 0.0 0.0 0 0.0 0.0 1021.0 0.0 21.0 21.0 0.0
23/10/19 19:19 21.0 22 -1.6 0.0 0.0 0 0.0 0.0 1021.0 0.0 21.0 21.0 0.0
23/10/19 19:18 21.1 22 -1.5 0.0 0.0 0 0.0 0.0 1021.0 0.0 21.1 21.1 0.0
23/10/19 19:17 21.1 22 -1.5 0.0 0.0 0 0.0 0.0 1021.0 0.0 21.1 21.1 0.0
23/10/19 19:15 21.2 22 -1.4 0.0 0.0 0 0.0 0.0 1021.0 0.0 21.2 21.2 0.0
23/10/19 19:14 21.3 22 -1.3 0.0 0.0 0 0.0 0.0 1021.0 0.0 21.3 21.3 0.0
23/10/19 19:13 21.3 22 -1.3 0.0 0.0 0 0.0 0.0 1021.0 0.0 21.3 21.3 0.0
23/10/19 19:12 21.4 22 -1.2 0.0 0.0 0 0.0 0.0 1021.0 0.0 21.4 21.4 0.0
23/10/19 19:11 21.4 19 -3.2 0.0 0.0 0 0.0 0.0 1021.0 0.0 21.4 21.4 0.0
23/10/19 19:10 21.4 19 -3.2 0.0 0.0 0 0.0 0.0 1021.0 0.0 21.4 21.4 0.0
23/10/19 19:09 21.5 17 -4.6 0.0 0.0 0 0.0 0.0 1021.0 0.0 21.5 21.5 0.0
23/10/19 19:08 21.5 19 -3.1 0.0 0.0 0 0.0 0.0 1021.0 0.0 21.6 21.5 0.0
23/10/19 19:07 21.6 17 -4.5 0.0 0.0 0 0.0 0.0 1020.0 0.0 21.6 21.6 0.0
23/10/19 19:06 21.7 14 -7.0 0.0 0.0 0 0.0 0.0 1020.0 0.0 21.7 21.7 0.0
23/10/19 19:05 21.7 12 -9.0 0.0 0.0 0 0.0 0.0 1020.0 0.0 21.7 21.7 0.0
23/10/19 19:04 21.8 12 -8.9 0.0 0.0 0 0.0 0.0 1020.0 0.0 21.8 21.8 0.0
23/10/19 19:03 21.8 12 -8.9 0.0 0.0 0 0.0 0.0 1020.0 0.0 21.8 21.8 0.0
23/10/19 19:02 21.8 9 -12.5 0.0 0.0 0 0.0 0.0 1020.0 0.0 21.8 21.8 0.0
23/10/19 19:00 22.0 6 -17.3 0.0 0.0 0 0.0 0.0 1020.0 0.0 22.0 22.0 0.0
23/10/19 18:59 22.0 4 -22.0 0.0 0.0 0 0.0 0.0 1020.0 0.0 22.0 22.0 0.0
23/10/19 18:58 22.1 4 -22.0 0.0 0.0 0 0.0 0.0 1020.0 0.0 22.1 22.1 0.0
23/10/19 18:57 22.1 4 -22.0 0.0 0.0 0 0.0 0.0 1020.0 0.0 22.1 22.1 0.0
23/10/19 18:56 22.2 3 -25.1 0.0 0.0 0 0.0 0.0 1020.0 0.0 22.2 22.2 0.0
23/10/19 18:55 22.2 3 -25.1 0.0 0.0 0 0.0 0.0 1020.0 0.0 22.2 22.2 0.0
23/10/19 18:54 22.2 3 -25.1 0.0 0.0 0 0.0 0.0 1020.0 0.0 22.2 22.2 0.0
23/10/19 18:53 22.3 3 -25.1 0.0 0.0 0 0.0 0.0 1020.0 0.0 22.3 22.3 0.0
23/10/19 18:52 22.3 3 -25.1 0.0 0.0 0 0.0 0.0 1020.0 0.0 22.3 22.3 0.0
23/10/19 18:51 22.4 3 -25.0 0.0 0.0 0 0.0 0.0 1020.0 0.0 22.4 22.4 0.0
23/10/19 18:50 22.4 3 -25.0 0.0 0.0 0 0.0 0.0 1020.0 0.0 22.4 22.4 0.0
23/10/19 18:49 22.5 3 -24.9 0.0 0.0 0 0.0 0.0 1020.0 0.0 22.5 22.5 0.0
23/10/19 18:48 22.5 3 -24.9 0.0 0.0 0 0.0 0.0 1020.0 0.0 22.5 22.5 0.0
23/10/19 18:47 22.5 3 -24.9 0.0 0.0 0 0.0 0.0 1020.0 0.0 22.5 22.5 0.0
23/10/19 18:45 22.6 3 -24.9 0.0 0.0 0 0.0 0.0 1020.0 0.0 22.6 22.6 0.0
23/10/19 18:44 22.7 3 -24.8 0.0 0.0 0 0.0 0.0 1020.0 0.0 22.7 22.7 0.0
23/10/19 18:43 22.7 3 -24.8 0.0 0.0 0 0.0 0.0 1020.0 0.0 22.7 22.7 0.0
23/10/19 18:42 22.8 3 -24.7 0.0 0.0 0 0.0 0.0 1020.0 0.0 22.8 22.8 0.0
23/10/19 18:41 22.8 3 -24.7 0.0 0.0 0 0.0 0.0 1020.0 0.0 22.8 22.8 0.0
23/10/19 18:40 22.9 3 -24.7 0.0 0.0 0 0.0 0.0 1020.0 0.0 22.9 22.9 0.0
23/10/19 18:39 22.9 3 -24.7 0.0 0.0 0 0.0 0.0 1020.0 0.0 22.9 22.9 0.0
23/10/19 18:38 22.9 3 -24.7 0.0 0.0 0 0.0 0.0 1020.0 0.0 23.0 22.9 0.0
23/10/19 18:37 23.0 2 -29.0 0.0 0.0 0 0.0 0.0 1019.0 0.0 23.1 23.0 0.0
23/10/19 18:36 23.1 2 -29.0 0.0 0.0 0 0.0 0.0 1019.0 0.0 23.1 23.1 0.0
23/10/19 18:35 23.2 2 -28.9 0.0 0.0 0 0.0 0.0 1019.0 0.0 23.2 23.2 0.0
23/10/19 18:34 23.2 2 -28.9 0.0 0.0 0 0.0 0.0 1019.0 0.0 23.2 23.2 0.0
23/10/19 18:33 23.2 2 -28.9 0.0 0.0 0 0.0 0.0 1019.0 0.0 23.2 23.2 0.0
23/10/19 18:32 23.3 2 -28.8 0.0 0.0 0 0.0 0.0 1019.0 0.0 23.3 23.3 0.0
23/10/19 18:30 23.4 2 -28.8 0.0 0.0 0 0.0 0.0 1019.0 0.0 23.4 23.4 0.0
23/10/19 18:29 23.4 2 -28.8 0.0 0.0 0 0.0 0.0 1019.0 0.0 23.4 23.4 0.0
23/10/19 18:28 23.5 2 -28.7 0.0 0.0 0 0.0 0.0 1019.0 0.0 23.5 23.5 0.0
23/10/19 18:27 23.5 2 -28.7 0.0 0.0 0 0.0 0.0 1019.0 0.0 23.5 23.5 0.0
23/10/19 18:26 23.5 2 -28.7 0.0 0.0 0 0.0 0.0 1019.0 0.0 23.5 23.5 0.0
23/10/19 18:25 23.5 2 -28.7 0.0 0.0 0 0.0 0.0 1019.0 0.0 23.5 23.5 0.0
23/10/19 18:24 23.6 2 -28.6 0.0 0.0 0 0.0 0.0 1019.0 0.0 23.6 23.6 0.0
23/10/19 18:23 23.6 2 -28.6 0.0 0.0 0 0.0 0.0 1019.0 0.0 23.6 23.6 0.0
23/10/19 18:22 23.7 2 -28.6 0.0 0.0 0 0.0 0.0 1019.0 0.0 23.7 23.7 0.0
23/10/19 18:21 23.8 2 -28.5 0.0 0.0 0 0.0 0.0 1019.0 0.0 23.8 23.8 0.0
23/10/19 18:20 23.9 2 -28.4 0.0 0.0 0 0.0 0.0 1019.0 0.0 23.9 23.9 0.0
23/10/19 18:19 24.0 2 -28.4 0.0 0.0 0 0.0 0.0 1019.0 0.0 24.0 24.0 0.0
23/10/19 18:18 24.1 2 -28.3 0.0 0.0 0 0.0 0.0 1019.0 0.0 24.1 24.1 0.0
23/10/19 18:17 24.2 2 -28.3 0.0 0.0 0 0.0 0.0 1019.0 0.0 24.2 24.2 0.0
23/10/19 18:15 24.3 2 -28.2 0.0 0.0 0 0.0 0.0 1019.0 0.0 24.3 24.3 0.0
23/10/19 18:14 24.4 2 -28.1 0.0 0.0 0 0.0 0.0 1019.0 0.0 24.4 24.4 0.0
23/10/19 18:13 24.4 2 -28.1 0.0 0.0 0 0.0 0.0 1019.0 0.0 24.4 24.4 0.0
23/10/19 18:12 24.4 2 -28.1 0.0 0.0 0 0.0 0.0 1019.0 0.0 24.4 24.4 0.0
23/10/19 18:11 24.4 2 -28.1 0.0 0.0 0 0.0 0.0 1019.0 0.0 24.4 24.4 0.0
23/10/19 18:10 24.4 2 -28.1 0.0 0.0 0 0.0 0.0 1019.0 0.0 24.4 24.4 0.0
23/10/19 18:09 24.4 2 -28.1 0.0 0.0 0 0.0 0.0 1019.0 0.0 24.4 24.4 0.0
23/10/19 18:08 24.6 2 -28.0 0.0 0.0 0 0.0 0.0 1019.0 0.0 24.6 24.6 0.0
23/10/19 18:07 24.6 2 -28.0 0.0 0.0 0 0.0 0.0 1019.0 0.0 24.6 24.6 0.0
23/10/19 18:06 24.7 2 -27.9 0.0 0.0 0 0.0 0.0 1019.0 0.0 24.7 24.7 0.0
23/10/19 18:05 24.7 2 -27.9 0.0 0.0 0 0.0 0.0 1019.0 0.0 24.7 24.7 0.0
23/10/19 18:04 24.8 2 -27.9 0.0 0.0 0 0.0 0.0 1019.0 0.0 24.8 24.8 0.0
23/10/19 18:03 24.9 2 -27.8 0.0 0.0 0 0.0 0.0 1019.0 0.0 24.9 24.9 0.0
23/10/19 18:02 25.0 2 -27.7 0.0 0.0 0 0.0 0.0 1019.0 0.0 25.0 25.0 0.0
23/10/19 18:00 25.2 2 -27.6 0.0 0.0 0 0.0 0.0 1019.0 0.0 25.2 25.2 0.0
23/10/19 17:59 25.2 2 -27.6 0.0 0.0 0 0.0 0.0 1019.0 0.0 25.3 25.2 0.0
23/10/19 17:58 25.3 2 -27.5 0.0 0.0 0 0.0 0.0 1019.0 0.0 25.3 25.3 0.0
23/10/19 17:57 25.3 2 -27.5 0.0 0.0 0 0.0 0.0 1019.0 0.0 25.3 25.3 0.0
23/10/19 17:56 25.3 2 -27.5 0.0 0.0 0 0.0 0.0 1019.0 0.0 25.3 25.3 0.0
23/10/19 17:55 25.3 2 -27.5 0.0 0.0 0 0.0 0.0 1019.0 0.0 25.3 25.3 0.0
23/10/19 17:54 25.3 2 -27.5 0.0 0.0 0 0.0 0.0 1019.0 0.0 25.3 25.3 0.0
23/10/19 17:53 25.3 2 -27.5 0.0 0.0 0 0.0 0.0 1019.0 0.0 25.3 25.3 0.0
23/10/19 17:52 25.3 2 -27.5 0.0 0.0 0 0.0 0.0 1018.0 0.0 25.3 25.3 0.0
23/10/19 17:51 25.3 2 -27.5 0.0 0.0 0 0.0 0.0 1018.0 0.0 25.3 25.3 0.0
23/10/19 17:50 25.2 2 -27.6 0.0 0.0 0 0.0 0.0 1018.0 0.0 25.2 25.2 0.0
23/10/19 17:49 25.3 2 -27.5 0.0 0.0 0 0.0 0.0 1018.0 0.0 25.3 25.3 0.0
23/10/19 17:48 25.2 2 -27.6 0.0 0.0 0 0.0 0.0 1018.0 0.0 25.2 25.2 0.0
23/10/19 17:45 25.2 2 -27.6 0.0 0.0 0 0.0 0.0 1018.0 0.0 25.2 25.2 0.0
23/10/19 17:44 25.2 2 -27.6 0.0 0.0 0 0.0 0.0 1018.0 0.0 25.1 25.2 0.0
23/10/19 17:43 25.1 2 -27.7 0.0 0.0 0 0.0 0.0 1018.0 0.0 25.1 25.1 0.0
23/10/19 17:42 25.1 2 -27.7 0.0 0.0 0 0.0 0.0 1018.0 0.0 25.1 25.1 0.0
23/10/19 17:41 25.1 2 -27.7 0.0 0.0 0 0.0 0.0 1018.0 0.0 25.1 25.1 0.0
23/10/19 17:40 25.1 2 -27.7 0.0 0.0 0 0.0 0.0 1018.0 0.0 25.1 25.1 0.0
23/10/19 17:39 25.1 2 -27.7 0.0 0.0 0 0.0 0.0 1018.0 0.0 25.1 25.1 0.0
23/10/19 17:38 25.2 2 -27.6 0.0 0.0 0 0.0 0.0 1018.0 0.0 25.2 25.2 0.0
23/10/19 17:37 25.2 2 -27.6 0.0 0.0 0 0.0 0.0 1018.0 0.0 25.2 25.2 0.0
23/10/19 17:36 25.2 2 -27.6 0.0 0.0 0 0.0 0.0 1018.0 0.0 25.3 25.2 0.0
23/10/19 17:35 25.3 2 -27.5 0.0 0.0 0 0.0 0.0 1018.0 0.0 25.3 25.3 0.0
23/10/19 17:34 25.3 2 -27.5 0.0 0.0 0 0.0 0.0 1018.0 0.0 25.3 25.3 0.0
23/10/19 17:33 25.4 2 -27.5 0.0 0.0 0 0.0 0.0 1018.0 0.0 25.4 25.4 0.0
23/10/19 17:32 25.4 2 -27.5 0.0 0.0 0 0.0 0.0 1018.0 0.0 25.4 25.4 0.0
23/10/19 17:30 25.5 2 -27.4 0.0 0.0 0 0.0 0.0 1018.0 0.0 25.5 25.5 0.0
23/10/19 17:29 25.5 2 -27.4 0.0 0.0 0 0.0 0.0 1018.0 0.0 25.5 25.5 0.0
23/10/19 17:28 25.6 2 -27.3 0.0 0.0 0 0.0 0.0 1018.0 0.0 25.6 25.6 0.0
23/10/19 17:27 25.8 2 -27.2 0.0 0.0 0 0.0 0.0 1018.0 0.0 25.8 25.8 0.0
23/10/19 17:26 25.8 2 -27.2 0.0 0.0 0 0.0 0.0 1018.0 0.0 25.8 25.8 0.0
23/10/19 17:25 25.9 2 -27.2 0.0 0.0 0 0.0 0.0 1018.0 0.0 25.9 25.9 0.0
23/10/19 17:24 26.0 2 -27.1 0.0 0.0 0 0.0 0.0 1018.0 0.0 26.0 26.0 0.0
23/10/19 17:23 26.0 2 -27.1 0.0 0.0 0 0.0 0.0 1018.0 0.0 26.0 26.0 0.0
23/10/19 17:22 26.0 2 -27.1 0.0 0.0 0 0.0 0.0 1019.0 0.0 26.0 26.0 0.0
23/10/19 17:21 26.0 2 -27.1 0.0 0.0 0 0.0 0.0 1019.0 0.0 26.0 26.0 0.0
23/10/19 17:20 26.1 2 -27.0 0.0 0.0 0 0.0 0.0 1019.0 0.0 26.1 26.1 0.0
23/10/19 17:19 26.1 2 -27.0 0.0 0.0 0 0.0 0.0 1019.0 0.0 26.1 26.1 0.0
23/10/19 17:18 26.2 2 -27.0 0.0 0.0 0 0.0 0.0 1019.0 0.0 26.2 26.2 0.0
23/10/19 17:17 26.3 2 -26.9 0.0 0.0 0 0.0 0.0 1019.0 0.0 26.3 26.3 0.0
23/10/19 17:13 26.5 2 -26.8 0.0 0.0 0 0.0 0.0 1019.0 0.0 26.5 26.5 0.0
23/10/19 17:12 26.5 2 -26.8 0.0 0.0 0 0.0 0.0 1019.0 0.0 26.5 26.5 0.0
23/10/19 17:11 26.4 2 -26.8 0.0 0.0 0 0.0 0.0 1019.0 0.0 26.4 26.4 0.0
23/10/19 17:10 26.4 2 -26.8 0.0 0.0 0 0.0 0.0 1019.0 0.0 26.4 26.4 0.0
23/10/19 17:09 26.3 2 -26.9 0.0 0.0 0 0.0 0.0 1019.0 0.0 26.3 26.3 0.0
23/10/19 17:08 26.3 2 -26.9 0.0 0.0 0 0.0 0.0 1019.0 0.0 26.3 26.3 0.0
23/10/19 17:07 26.3 2 -26.9 0.0 0.0 0 0.0 0.0 1019.0 0.0 26.4 26.3 0.0
23/10/19 17:06 26.4 2 -26.8 0.0 0.0 0 0.0 0.0 1019.0 0.0 26.5 26.4 0.0
23/10/19 17:05 26.7 2 -26.6 0.0 0.0 0 0.0 0.0 1019.0 0.0 26.7 25.0 0.0
23/10/19 17:04 26.8 2 -26.6 0.0 0.0 0 0.0 0.0 1019.0 0.0 26.8 25.0 0.0
23/10/19 17:03 26.8 2 -26.6 0.0 0.0 0 0.0 0.0 1019.0 0.0 26.8 25.0 0.0
23/10/19 17:02 26.7 2 -26.6 0.0 0.0 0 0.0 0.0 1019.0 0.0 26.7 25.0 0.0
23/10/19 16:54 26.2 2 -27.0 0.0 0.0 0 0.0 0.0 1019.0 0.0 26.2 26.2 0.0
23/10/19 16:53 26.2 2 -27.0 0.0 0.0 0 0.0 0.0 1019.0 0.0 26.2 26.2 0.0
23/10/19 16:52 26.3 2 -26.9 0.0 0.0 0 0.0 0.0 1018.0 0.0 26.3 26.3 0.0
23/10/19 16:51 26.5 2 -26.8 0.0 0.0 0 0.0 0.0 1018.0 0.0 26.7 26.5 0.0
23/10/19 16:50 26.8 2 -26.6 0.0 0.0 0 0.0 0.0 1018.0 0.0 26.8 25.0 0.0
23/10/19 16:49 26.9 2 -26.5 0.0 0.0 0 0.0 0.0 1018.0 0.0 26.9 25.1 0.0
23/10/19 16:48 27.0 2 -26.4 0.0 0.0 0 0.0 0.0 1018.0 0.0 27.0 25.2 0.0
23/10/19 16:47 27.1 2 -26.4 0.0 0.0 0 0.0 0.0 1018.0 0.0 27.1 25.2 0.0
23/10/19 16:45 27.3 2 -26.3 0.0 0.0 0 0.0 0.0 1018.0 0.0 27.3 25.4 0.0
23/10/19 16:44 27.5 2 -26.1 0.0 0.0 0 0.0 0.0 1018.0 0.0 27.5 25.5 0.0
23/10/19 16:43 27.7 2 -26.0 0.0 0.0 0 0.0 0.0 1018.0 0.0 27.8 25.7 0.0
23/10/19 16:42 28.1 2 -25.7 0.0 0.0 0 0.0 0.0 1018.0 0.0 28.1 25.9 0.0
23/10/19 16:41 28.3 2 -25.6 0.0 0.0 0 0.0 0.0 1018.0 0.0 28.3 26.1 0.0
23/10/19 16:40 28.6 2 -25.4 0.0 0.0 0 0.0 0.0 1018.0 0.0 28.6 26.3 0.0
23/10/19 16:39 28.8 2 -25.3 0.0 0.0 0 0.0 0.0 1018.0 0.0 28.8 26.5 0.0
23/10/19 16:38 29.3 2 -25.0 0.0 0.0 0 0.0 0.0 1018.0 0.0 29.3 26.8 0.0
23/10/19 16:37 29.3 2 -25.0 0.0 0.0 0 0.0 0.0 1019.0 0.0 29.3 26.8 0.0
23/10/19 16:36 29.7 2 -24.7 0.0 0.0 0 0.0 0.0 1019.0 0.0 29.7 27.1 0.0
23/10/19 16:35 30.4 2 -24.3 0.0 0.0 0 0.0 0.0 1019.0 0.0 30.4 27.6 0.0
23/10/19 16:34 30.8 2 -24.0 0.0 0.0 0 0.0 0.0 1019.0 0.0 30.8 27.9 0.0
23/10/19 16:33 31.1 2 -23.8 0.0 0.0 0 0.0 0.0 1019.0 0.0 31.1 28.1 0.0
23/10/19 16:32 31.5 2 -23.6 0.0 0.0 0 0.0 0.0 1019.0 0.0 31.5 28.4 0.0
23/10/19 16:20 33.4 2 -22.3 0.0 0.0 0 0.0 0.0 1019.0 0.0 33.4 29.8 0.0
23/10/19 16:19 33.8 2 -22.1 0.0 0.0 0 0.0 0.0 1019.0 0.0 33.8 30.1 0.0
23/10/19 16:18 33.8 2 -22.1 0.0 0.0 0 0.0 0.0 1019.0 0.0 33.8 30.1 0.0
23/10/19 16:17 33.9 2 -22.0 0.0 0.0 0 0.0 0.0 1019.0 0.0 33.9 30.1 0.0
23/10/19 16:15 33.9 2 -22.0 0.0 0.0 0 0.0 0.0 1019.0 0.0 33.9 30.1 0.0
23/10/19 16:14 33.9 2 -22.0 0.0 0.0 0 0.0 0.0 1019.0 0.0 33.9 30.1 0.0
23/10/19 16:13 33.9 2 -22.0 0.0 0.0 0 0.0 0.0 1019.0 0.0 34.0 30.1 0.0
23/10/19 16:12 34.0 2 -22.0 0.0 0.0 0 0.0 0.0 1019.0 0.0 34.0 30.2 0.0
23/10/19 16:11 33.9 2 -22.0 0.0 0.0 0 0.0 0.0 1019.0 0.0 33.9 30.1 0.0
23/10/19 16:10 33.9 2 -22.0 0.0 0.0 0 0.0 0.0 1019.0 0.0 33.9 30.1 0.0
23/10/19 16:09 33.9 2 -22.0 0.0 0.0 0 0.0 0.0 1019.0 0.0 33.9 30.1 0.0
23/10/19 16:08 33.8 2 -22.1 0.0 0.0 0 0.0 0.0 1019.0 0.0 33.8 30.1 0.0
23/10/19 16:07 33.8 2 -22.1 0.0 0.0 0 0.0 0.0 1019.0 0.0 33.8 30.1 0.0
23/10/19 16:06 33.8 2 -22.1 0.0 0.0 0 0.0 0.0 1019.0 0.0 33.8 30.1 0.0
23/10/19 16:05 33.8 2 -22.1 0.0 0.0 0 0.0 0.0 1019.0 0.0 33.8 30.1 0.0
23/10/19 16:04 33.9 2 -22.0 0.0 0.0 0 0.0 0.0 1019.0 0.0 33.9 30.1 0.0
23/10/19 16:03 34.0 2 -22.0 0.0 0.0 0 0.0 0.0 1019.0 0.0 34.0 30.2 0.0
23/10/19 16:02 34.0 2 -22.0 0.0 0.0 0 0.0 0.0 1019.0 0.0 34.0 30.2 0.0
23/10/19 15:57 32.9 2 -22.7 0.0 0.0 0 0.0 0.0 1019.0 0.0 32.9 29.4 0.0
23/10/19 15:56 32.8 2 -22.7 0.0 0.0 0 0.0 0.0 1019.0 0.0 32.8 29.4 0.0
23/10/19 15:55 32.7 2 -22.8 0.0 0.0 0 0.0 0.0 1019.0 0.0 32.7 29.3 0.0
23/10/19 15:54 32.7 2 -22.8 0.0 0.0 0 0.0 0.0 1019.0 0.0 32.7 29.3 0.0
23/10/19 15:53 32.6 2 -22.9 0.0 0.0 0 0.0 0.0 1019.0 0.0 32.6 29.2 0.0
23/10/19 15:52 32.8 2 -22.7 0.0 0.0 0 0.0 0.0 1019.0 0.0 32.8 29.4 0.0
23/10/19 15:51 32.8 2 -22.7 0.0 0.0 0 0.0 0.0 1019.0 0.0 32.8 29.4 0.0
23/10/19 15:50 32.8 2 -22.7 0.0 0.0 0 0.0 0.0 1019.0 0.0 32.9 29.4 0.0
23/10/19 15:49 33.2 2 -22.5 0.0 0.0 0 0.0 0.0 1019.0 0.0 33.2 29.6 0.0
23/10/19 15:48 33.4 2 -22.3 0.0 0.0 0 0.0 0.0 1019.0 0.0 33.4 29.8 0.0
23/10/19 15:47 33.6 2 -22.2 0.0 0.0 0 0.0 0.0 1019.0 0.0 33.6 29.9 0.0
23/10/19 15:45 33.4 2 -22.3 0.0 0.0 0 0.0 0.0 1019.0 0.0 33.4 29.8 0.0
23/10/19 15:44 33.2 2 -22.5 0.0 0.0 0 0.0 0.0 1019.0 0.0 33.2 29.6 0.0
23/10/19 15:43 33.0 2 -22.6 0.0 0.0 0 0.0 0.0 1019.0 0.0 32.7 29.5 0.0
23/10/19 15:42 32.5 2 -22.9 0.0 0.0 0 0.0 0.0 1019.0 0.0 32.5 29.1 0.0
23/10/19 15:41 32.3 2 -23.1 0.0 0.0 0 0.0 0.0 1019.0 0.0 32.3 29.0 0.0
23/10/19 15:40 32.4 2 -23.0 0.0 0.0 0 0.0 0.0 1019.0 0.0 32.4 29.1 0.0
23/10/19 15:39 32.5 2 -22.9 0.0 0.0 0 0.0 0.0 1019.0 0.0 32.5 29.1 0.0
23/10/19 15:38 33.0 2 -22.6 0.0 0.0 0 0.0 0.0 1019.0 0.0 33.0 29.5 0.0
23/10/19 15:37 33.6 2 -22.2 0.0 0.0 0 0.0 0.0 1019.0 0.0 33.6 29.9 0.0
23/10/19 15:36 33.8 2 -22.1 0.0 0.0 0 0.0 0.0 1019.0 0.0 33.8 30.1 0.0
23/10/19 15:35 33.8 2 -22.1 0.0 0.0 0 0.0 0.0 1019.0 0.0 33.7 30.1 0.0
23/10/19 15:34 33.5 2 -22.3 0.0 0.0 0 0.0 0.0 1019.0 0.0 33.5 29.9 0.0
23/10/19 15:33 33.2 2 -22.5 0.0 0.0 0 0.0 0.0 1019.0 0.0 33.2 29.6 0.0
23/10/19 15:32 33.0 2 -22.6 0.0 0.0 0 0.0 0.0 1019.0 0.0 33.0 29.5 0.0
23/10/19 15:25 32.6 2 -22.9 0.0 0.0 0 0.0 0.0 1019.0 0.0 32.6 29.2 0.0
23/10/19 15:24 32.3 2 -23.1 0.0 0.0 0 0.0 0.0 1019.0 0.0 32.3 29.0 0.0
23/10/19 15:23 32.1 2 -23.2 0.0 0.0 0 0.0 0.0 1019.0 0.0 32.1 28.9 0.0
23/10/19 15:22 31.7 2 -23.4 0.0 0.0 0 0.0 0.0 1019.0 0.0 31.7 28.6 0.0
23/10/19 15:21 31.3 2 -23.7 0.0 0.0 0 0.0 0.0 1019.0 0.0 31.3 28.3 0.0
23/10/19 15:20 31.2 2 -23.8 0.0 0.0 0 0.0 0.0 1019.0 0.0 30.9 28.2 0.0
23/10/19 15:19 30.6 2 -24.1 0.0 0.0 0 0.0 0.0 1019.0 0.0 30.6 27.8 0.0
23/10/19 15:18 30.3 2 -24.3 0.0 0.0 0 0.0 0.0 1019.0 0.0 30.3 27.6 0.0
23/10/19 15:17 30.1 2 -24.5 0.0 0.0 0 0.0 0.0 1019.0 0.0 30.1 27.4 0.0
23/10/19 15:14 31.0 2 -23.9 0.0 0.0 0 0.0 0.0 1019.0 0.0 31.0 28.1 0.0
23/10/19 15:13 30.9 2 -23.9 0.0 0.0 0 0.0 0.0 1019.0 0.0 30.9 28.0 0.0
23/10/19 15:12 30.8 2 -24.0 0.0 0.0 0 0.0 0.0 1019.0 0.0 30.8 27.9 0.0
23/10/19 15:11 30.9 2 -23.9 0.0 0.0 0 0.0 0.0 1019.0 0.0 30.9 28.0 0.0
23/10/19 15:10 31.2 2 -23.8 0.0 0.0 0 0.0 0.0 1019.0 0.0 31.2 28.2 0.0
23/10/19 15:09 31.5 2 -23.6 0.0 0.0 0 0.0 0.0 1019.0 0.0 31.5 28.4 0.0
23/10/19 15:08 31.3 2 -23.7 0.0 0.0 0 0.0 0.0 1019.0 0.0 31.3 28.3 0.0
23/10/19 15:07 31.2 2 -23.8 0.0 0.0 0 0.0 0.0 1020.0 0.0 31.2 28.2 0.0
23/10/19 15:06 31.3 2 -23.7 0.0 0.0 0 0.0 0.0 1020.0 0.0 31.3 28.3 0.0
23/10/19 15:05 31.2 2 -23.8 0.0 0.0 0 0.0 0.0 1020.0 0.0 31.2 28.2 0.0
23/10/19 15:04 30.6 2 -24.1 0.0 0.0 0 0.0 0.0 1020.0 0.0 30.6 27.8 0.0
23/10/19 15:03 30.1 2 -24.5 0.0 0.0 0 0.0 0.0 1020.0 0.0 30.1 27.4 0.0
23/10/19 15:02 29.6 2 -24.8 0.0 0.0 0 0.0 0.0 1020.0 0.0 29.6 27.0 0.0
23/10/19 14:59 28.8 2 -25.3 0.0 0.0 0 0.0 0.0 1020.0 0.0 28.8 26.5 0.0
23/10/19 14:58 28.8 2 -25.3 0.0 0.0 0 0.0 0.0 1020.0 0.0 28.8 26.5 0.0
23/10/19 14:57 28.9 2 -25.2 0.0 0.0 0 0.0 0.0 1020.0 0.0 29.0 26.5 0.0
23/10/19 14:56 29.1 2 -25.1 0.0 0.0 0 0.0 0.0 1020.0 0.0 29.1 26.7 0.0
23/10/19 14:55 29.2 2 -25.0 0.0 0.0 0 0.0 0.0 1020.0 0.0 29.2 26.7 0.0
23/10/19 14:54 29.6 2 -24.8 0.0 0.0 0 0.0 0.0 1020.0 0.0 29.6 27.0 0.0
23/10/19 14:53 30.0 2 -24.5 0.0 0.0 0 0.0 0.0 1020.0 0.0 30.0 27.3 0.0
23/10/19 14:52 30.3 2 -24.3 0.0 0.0 0 0.0 0.0 1020.0 0.0 30.3 27.6 0.0
23/10/19 14:51 30.6 2 -24.1 0.0 0.0 0 0.0 0.0 1020.0 0.0 30.6 27.8 0.0
23/10/19 14:50 30.7 2 -24.1 0.0 0.0 0 0.0 0.0 1020.0 0.0 30.8 27.8 0.0
23/10/19 14:49 30.8 2 -24.0 0.0 0.0 0 0.0 0.0 1020.0 0.0 30.8 27.9 0.0
23/10/19 14:48 30.6 2 -24.1 0.0 0.0 0 0.0 0.0 1020.0 0.0 30.6 27.8 0.0
23/10/19 14:47 30.5 2 -24.2 0.0 0.0 0 0.0 0.0 1020.0 0.0 30.5 27.7 0.0
23/10/19 14:44 30.2 2 -24.4 0.0 0.0 0 0.0 0.0 1020.0 0.0 30.2 27.5 0.0
23/10/19 14:43 29.2 2 -25.0 0.0 0.0 0 0.0 0.0 1020.0 0.0 29.2 26.7 0.0
23/10/19 14:42 29.2 2 -25.0 0.0 0.0 0 0.0 0.0 1020.0 0.0 29.2 26.7 0.0
23/10/19 14:41 28.3 2 -25.6 0.0 0.0 0 0.0 0.0 1020.0 0.0 28.3 26.1 0.0
23/10/19 14:40 28.3 2 -25.6 0.0 0.0 0 0.0 0.0 1020.0 0.0 28.3 26.1 0.0
23/10/19 14:39 27.7 2 -26.0 0.0 0.0 0 0.0 0.0 1020.0 0.0 27.7 25.7 0.0
23/10/19 14:38 27.7 2 -26.0 0.0 0.0 0 0.0 0.0 1020.0 0.0 27.7 25.7 0.0
23/10/19 14:37 27.6 2 -26.1 0.0 0.0 0 0.0 0.0 1020.0 0.0 27.6 25.6 0.0
23/10/19 14:36 27.8 2 -25.9 0.0 0.0 0 0.0 0.0 1020.0 0.0 27.8 25.7 0.0
23/10/19 14:35 27.9 2 -25.9 0.0 0.0 0 0.0 0.0 1020.0 0.0 28.1 25.8 0.0
23/10/19 14:34 28.1 2 -25.7 0.0 0.0 0 0.0 0.0 1020.0 0.0 28.1 25.9 0.0
23/10/19 14:33 28.2 2 -25.7 0.0 0.0 0 0.0 0.0 1020.0 0.0 28.2 26.0 0.0
23/10/19 14:32 28.2 2 -25.7 0.0 0.0 0 0.0 0.0 1020.0 0.0 28.2 26.0 0.0
23/10/19 14:30 28.4 2 -25.5 0.0 0.0 0 0.0 0.0 1020.0 0.0 28.4 26.2 0.0
23/10/19 14:29 28.4 2 -25.5 0.0 0.0 0 0.0 0.0 1020.0 0.0 28.4 26.2 0.0
23/10/19 14:28 28.5 2 -25.5 0.0 0.0 0 0.0 0.0 1020.0 0.0 28.5 26.2 0.0
23/10/19 14:27 28.9 2 -25.2 0.0 0.0 0 0.0 0.0 1020.0 0.0 29.2 26.5 0.0
23/10/19 14:26 29.4 2 -24.9 0.0 0.0 0 0.0 0.0 1020.0 0.0 29.4 26.9 0.0
23/10/19 14:25 29.9 2 -24.6 0.0 0.0 0 0.0 0.0 1020.0 0.0 29.9 27.3 0.0
23/10/19 14:24 30.1 2 -24.5 0.0 0.0 0 0.0 0.0 1020.0 0.0 30.1 27.4 0.0
23/10/19 14:23 30.1 2 -24.5 0.0 0.0 0 0.0 0.0 1020.0 0.0 30.1 27.4 0.0
23/10/19 14:22 30.1 2 -24.5 0.0 0.0 0 0.0 0.0 1021.0 0.0 30.1 27.4 0.0
23/10/19 14:21 30.3 2 -24.3 0.0 0.0 0 0.0 0.0 1021.0 0.0 30.3 27.6 0.0
23/10/19 14:20 30.6 2 -24.1 0.0 0.0 0 0.0 0.0 1021.0 0.0 30.6 27.8 0.0
23/10/19 14:19 30.9 2 -23.9 0.0 0.0 0 0.0 0.0 1021.0 0.0 30.9 28.0 0.0
23/10/19 14:18 31.0 2 -23.9 0.0 0.0 0 0.0 0.0 1021.0 0.0 31.0 28.1 0.0
23/10/19 14:17 30.9 2 -23.9 0.0 0.0 0 0.0 0.0 1021.0 0.0 30.9 28.0 0.0
23/10/19 14:15 30.7 2 -24.1 0.0 0.0 0 0.0 0.0 1021.0 0.0 30.7 27.8 0.0
23/10/19 14:14 30.8 2 -24.0 0.0 0.0 0 0.0 0.0 1021.0 0.0 30.8 27.9 0.0
23/10/19 14:13 30.7 2 -24.1 0.0 0.0 0 0.0 0.0 1021.0 0.0 30.7 27.8 0.0
23/10/19 14:12 30.7 2 -24.1 0.0 0.0 0 0.0 0.0 1021.0 0.0 30.6 27.8 0.0
23/10/19 14:11 30.4 2 -24.3 0.0 0.0 0 0.0 0.0 1021.0 0.0 30.4 27.6 0.0
23/10/19 14:10 30.2 2 -24.4 0.0 0.0 0 0.0 0.0 1021.0 0.0 30.2 27.5 0.0
23/10/19 14:09 30.4 2 -24.3 0.0 0.0 0 0.0 0.0 1021.0 0.0 30.4 27.6 0.0
23/10/19 14:08 30.6 2 -24.1 0.0 0.0 0 0.0 0.0 1021.0 0.0 30.6 27.8 0.0
23/10/19 14:07 30.9 2 -23.9 0.0 0.0 0 0.0 0.0 1021.0 0.0 30.9 28.0 0.0
23/10/19 14:06 30.5 2 -24.2 0.0 0.0 0 0.0 0.0 1021.0 0.0 30.5 27.7 0.0
23/10/19 14:05 30.4 2 -24.3 0.0 0.0 0 0.0 0.0 1021.0 0.0 30.4 27.6 0.0
23/10/19 14:04 30.4 2 -24.3 0.0 0.0 0 0.0 0.0 1021.0 0.0 30.6 27.6 0.0
23/10/19 14:03 30.9 2 -23.9 0.0 0.0 0 0.0 0.0 1021.0 0.0 30.9 28.0 0.0
23/10/19 14:02 31.1 2 -23.8 0.0 0.0 0 0.0 0.0 1021.0 0.0 31.1 28.1 0.0
23/10/19 14:00 31.4 2 -23.6 0.0 0.0 0 0.0 0.0 1021.0 0.0 31.4 28.3 0.0
23/10/19 13:59 31.6 2 -23.5 0.0 0.0 0 0.0 0.0 1021.0 0.0 31.6 28.5 0.0
23/10/19 13:58 31.8 2 -23.4 0.0 0.0 0 0.0 0.0 1021.0 0.0 31.8 28.6 0.0
23/10/19 13:57 31.8 2 -23.4 0.0 0.0 0 0.0 0.0 1021.0 0.0 31.8 28.6 0.0
23/10/19 13:56 31.6 2 -23.5 0.0 0.0 0 0.0 0.0 1021.0 0.0 31.6 28.5 0.0
23/10/19 13:55 31.5 2 -23.6 0.0 0.0 0 0.0 0.0 1021.0 0.0 31.5 28.4 0.0
23/10/19 13:54 31.3 2 -23.7 0.0 0.0 0 0.0 0.0 1021.0 0.0 31.3 28.3 0.0
23/10/19 13:53 31.1 2 -23.8 0.0 0.0 0 0.0 0.0 1021.0 0.0 31.1 28.1 0.0
23/10/19 13:52 30.9 2 -23.9 0.0 0.0 0 0.0 0.0 1021.0 0.0 30.9 28.0 0.0
23/10/19 13:51 30.7 2 -24.1 0.0 0.0 0 0.0 0.0 1021.0 0.0 30.8 27.8 0.0
23/10/19 13:50 30.8 2 -24.0 0.0 0.0 0 0.0 0.0 1021.0 0.0 30.7 27.9 0.0
23/10/19 13:49 30.7 2 -24.1 0.0 0.0 0 0.0 0.0 1021.0 0.0 30.6 27.8 0.0
23/10/19 13:48 30.5 2 -24.2 0.0 0.0 0 0.0 0.0 1021.0 0.0 30.5 27.7 0.0
23/10/19 13:47 30.4 2 -24.3 0.0 0.0 0 0.0 0.0 1021.0 0.0 30.4 27.6 0.0
23/10/19 13:45 30.5 2 -24.2 0.0 0.0 0 0.0 0.0 1021.0 0.0 30.5 27.7 0.0
23/10/19 13:44 30.3 2 -24.3 0.0 0.0 0 0.0 0.0 1021.0 0.0 30.3 27.6 0.0
23/10/19 13:43 30.2 2 -24.4 0.0 0.0 0 0.0 0.0 1021.0 0.0 30.2 27.5 0.0
23/10/19 13:42 30.0 2 -24.5 0.0 0.0 0 0.0 0.0 1021.0 0.0 30.0 27.3 0.0
23/10/19 13:41 29.5 2 -24.8 0.0 0.0 0 0.0 0.0 1021.0 0.0 29.5 27.0 0.0
23/10/19 13:40 29.6 2 -24.8 0.0 0.0 0 0.0 0.0 1021.0 0.0 29.6 27.0 0.0
23/10/19 13:39 29.8 2 -24.7 0.0 0.0 0 0.0 0.0 1021.0 0.0 29.8 27.2 0.0
23/10/19 13:38 29.9 2 -24.6 0.0 0.0 0 0.0 0.0 1021.0 0.0 29.9 27.3 0.0
23/10/19 13:37 29.8 2 -24.7 0.0 0.0 0 0.0 0.0 1020.0 0.0 29.8 27.2 0.0
23/10/19 13:36 29.7 2 -24.7 0.0 0.0 0 0.0 0.0 1020.0 0.0 29.7 27.1 0.0
23/10/19 13:35 29.6 2 -24.8 0.0 0.0 0 0.0 0.0 1020.0 0.0 29.6 27.0 0.0
23/10/19 13:34 29.6 2 -24.8 0.0 0.0 0 0.0 0.0 1020.0 0.0 29.6 27.0 0.0
23/10/19 13:33 29.6 2 -24.8 0.0 0.0 0 0.0 0.0 1020.0 0.0 29.6 27.0 0.0
23/10/19 13:32 29.6 2 -24.8 0.0 0.0 0 0.0 0.0 1020.0 0.0 29.6 27.0 0.0
23/10/19 13:30 29.4 2 -24.9 0.0 0.0 0 0.0 0.0 1020.0 0.0 29.4 26.9 0.0
23/10/19 13:29 29.3 2 -25.0 0.0 0.0 0 0.0 0.0 1020.0 0.0 29.3 26.8 0.0
23/10/19 13:28 29.3 2 -25.0 0.0 0.0 0 0.0 0.0 1020.0 0.0 29.3 26.8 0.0
23/10/19 13:27 29.2 2 -25.0 0.0 0.0 0 0.0 0.0 1020.0 0.0 29.2 26.7 0.0
23/10/19 13:26 29.6 2 -24.8 0.0 0.0 0 0.0 0.0 1020.0 0.0 29.6 27.0 0.0
23/10/19 13:25 29.7 2 -24.7 0.0 0.0 0 0.0 0.0 1020.0 0.0 29.7 27.1 0.0
23/10/19 13:24 29.7 2 -24.7 0.0 0.0 0 0.0 0.0 1020.0 0.0 29.7 27.1 0.0
23/10/19 13:23 29.8 2 -24.7 0.0 0.0 0 0.0 0.0 1020.0 0.0 29.8 27.2 0.0
23/10/19 13:22 29.8 2 -24.7 0.0 0.0 0 0.0 0.0 1021.0 0.0 29.8 27.2 0.0
23/10/19 13:21 29.8 2 -24.7 0.0 0.0 0 0.0 0.0 1021.0 0.0 29.8 27.2 0.0
23/10/19 13:20 29.9 2 -24.6 0.0 0.0 0 0.0 0.0 1021.0 0.0 29.9 27.3 0.0
23/10/19 13:19 29.9 2 -24.6 0.0 0.0 0 0.0 0.0 1021.0 0.0 30.0 27.3 0.0
23/10/19 13:18 30.0 2 -24.5 0.0 0.0 0 0.0 0.0 1021.0 0.0 30.0 27.3 0.0
23/10/19 13:17 30.4 2 -24.3 0.0 0.0 0 0.0 0.0 1021.0 0.0 30.4 27.6 0.0
23/10/19 13:15 31.1 2 -23.8 0.0 0.0 0 0.0 0.0 1021.0 0.0 31.1 28.1 0.0
23/10/19 13:14 31.4 2 -23.6 0.0 0.0 0 0.0 0.0 1021.0 0.0 31.4 28.3 0.0
23/10/19 13:13 31.4 2 -23.6 0.0 0.0 0 0.0 0.0 1021.0 0.0 31.4 28.3 0.0
23/10/19 13:12 31.3 2 -23.7 0.0 0.0 0 0.0 0.0 1021.0 0.0 31.1 28.3 0.0
23/10/19 13:11 31.1 2 -23.8 0.0 0.0 0 0.0 0.0 1021.0 0.0 30.9 28.1 0.0
23/10/19 13:10 30.6 2 -24.1 0.0 0.0 0 0.0 0.0 1021.0 0.0 30.6 27.8 0.0
23/10/19 13:09 30.3 2 -24.3 0.0 0.0 0 0.0 0.0 1021.0 0.0 30.3 27.6 0.0
23/10/19 13:08 30.0 2 -24.5 0.0 0.0 0 0.0 0.0 1021.0 0.0 30.0 27.3 0.0
23/10/19 13:07 29.8 2 -24.7 0.0 0.0 0 0.0 0.0 1021.0 0.0 29.8 27.2 0.0
23/10/19 13:06 30.0 2 -24.5 0.0 0.0 0 0.0 0.0 1021.0 0.0 30.0 27.3 0.0
23/10/19 13:05 30.1 2 -24.5 0.0 0.0 0 0.0 0.0 1021.0 0.0 30.1 27.4 0.0
23/10/19 13:04 30.0 2 -24.5 0.0 0.0 0 0.0 0.0 1021.0 0.0 29.7 27.3 0.0
23/10/19 13:03 29.6 2 -24.8 0.0 0.0 0 0.0 0.0 1021.0 0.0 29.6 27.0 0.0
23/10/19 13:02 29.8 2 -24.7 0.0 0.0 0 0.0 0.0 1021.0 0.0 29.8 27.2 0.0
23/10/19 12:59 30.4 2 -24.3 0.0 0.0 0 0.0 0.0 1021.0 0.0 30.4 27.6 0.0
23/10/19 12:58 30.2 2 -24.4 0.0 0.0 0 0.0 0.0 1021.0 0.0 30.2 27.5 0.0
23/10/19 12:57 30.0 2 -24.5 0.0 0.0 0 0.0 0.0 1021.0 0.0 30.0 27.3 0.0
23/10/19 12:56 30.0 2 -24.5 0.0 0.0 0 0.0 0.0 1021.0 0.0 30.3 27.3 0.0
23/10/19 12:55 30.3 2 -24.3 0.0 0.0 0 0.0 0.0 1021.0 0.0 30.3 27.6 0.0
23/10/19 12:54 30.4 2 -24.3 0.0 0.0 0 0.0 0.0 1021.0 0.0 30.4 27.6 0.0
23/10/19 12:53 30.8 2 -24.0 0.0 0.0 0 0.0 0.0 1021.0 0.0 30.8 27.9 0.0
23/10/19 12:52 31.3 2 -23.7 0.0 0.0 0 0.0 0.0 1021.0 0.0 31.3 28.3 0.0
23/10/19 12:42 31.3 2 -23.7 0.0 0.0 0 0.0 0.0 1021.0 0.0 31.3 28.3 0.0
23/10/19 12:41 31.3 2 -23.7 0.0 0.0 0 0.0 0.0 1021.0 0.0 31.3 28.3 0.0
23/10/19 12:40 31.3 2 -23.7 0.0 0.0 0 0.0 0.0 1021.0 0.0 31.3 28.3 0.0
23/10/19 12:39 31.3 2 -23.7 0.0 0.0 0 0.0 0.0 1021.0 0.0 31.3 28.3 0.0
23/10/19 12:38 31.2 2 -23.8 0.0 0.0 0 0.0 0.0 1021.0 0.0 31.2 28.2 0.0
23/10/19 12:37 31.0 2 -23.9 0.0 0.0 0 0.0 0.0 1021.0 0.0 31.0 28.1 0.0
23/10/19 12:36 31.0 2 -23.9 0.0 0.0 0 0.0 0.0 1021.0 0.0 31.0 28.1 0.0
23/10/19 12:35 31.0 2 -23.9 0.0 0.0 0 0.0 0.0 1021.0 0.0 31.0 28.1 0.0
23/10/19 12:34 31.1 2 -23.8 0.0 0.0 0 0.0 0.0 1021.0 0.0 31.1 28.1 0.0
23/10/19 12:33 31.1 2 -23.8 0.0 0.0 0 0.0 0.0 1021.0 0.0 31.1 28.1 0.0
23/10/19 12:32 31.1 2 -23.8 0.0 0.0 0 0.0 0.0 1021.0 0.0 31.1 28.1 0.0
23/10/19 12:30 31.4 2 -23.6 0.0 0.0 0 0.0 0.0 1021.0 0.0 31.4 28.3 0.0
23/10/19 12:29 31.4 2 -23.6 0.0 0.0 0 0.0 0.0 1021.0 0.0 31.4 28.3 0.0
23/10/19 12:28 31.4 2 -23.6 0.0 0.0 0 0.0 0.0 1021.0 0.0 31.4 28.3 0.0
23/10/19 12:27 31.3 2 -23.7 0.0 0.0 0 0.0 0.0 1021.0 0.0 31.3 28.3 0.0
23/10/19 12:26 31.3 2 -23.7 0.0 0.0 0 0.0 0.0 1021.0 0.0 31.2 28.3 0.0
23/10/19 12:25 31.1 2 -23.8 0.0 0.0 0 0.0 0.0 1021.0 0.0 31.1 28.1 0.0
23/10/19 12:24 31.0 2 -23.9 0.0 0.0 0 0.0 0.0 1021.0 0.0 31.0 28.1 0.0
23/10/19 12:23 30.8 2 -24.0 0.0 0.0 0 0.0 0.0 1021.0 0.0 30.8 27.9 0.0
23/10/19 12:22 30.8 2 -24.0 0.0 0.0 0 0.0 0.0 1022.0 0.0 30.8 27.9 0.0
23/10/19 12:21 30.6 2 -24.1 0.0 0.0 0 0.0 0.0 1022.0 0.0 30.6 27.8 0.0
23/10/19 12:20 30.5 2 -24.2 0.0 0.0 0 0.0 0.0 1022.0 0.0 30.5 27.7 0.0
23/10/19 12:19 30.4 2 -24.3 0.0 0.0 0 0.0 0.0 1022.0 0.0 30.3 27.6 0.0
23/10/19 12:18 30.3 2 -24.3 0.0 0.0 0 0.0 0.0 1022.0 0.0 30.4 27.6 0.0
23/10/19 12:17 30.1 2 -24.5 0.0 0.0 0 0.0 0.0 1022.0 0.0 30.1 27.4 0.0
23/10/19 12:15 30.0 2 -24.5 0.0 0.0 0 0.0 0.0 1022.0 0.0 30.0 27.3 0.0
23/10/19 12:14 30.0 2 -24.5 0.0 0.0 0 0.0 0.0 1022.0 0.0 30.0 27.3 0.0
23/10/19 12:13 30.1 2 -24.5 0.0 0.0 0 0.0 0.0 1022.0 0.0 30.1 27.4 0.0
23/10/19 12:12 30.2 2 -24.4 0.0 0.0 0 0.0 0.0 1022.0 0.0 30.2 27.5 0.0
23/10/19 12:11 30.2 2 -24.4 0.0 0.0 0 0.0 0.0 1022.0 0.0 30.2 27.5 0.0
23/10/19 12:10 30.1 2 -24.5 0.0 0.0 0 0.0 0.0 1022.0 0.0 30.1 27.4 0.0
23/10/19 12:09 29.8 2 -24.7 0.0 0.0 0 0.0 0.0 1022.0 0.0 29.8 27.2 0.0
23/10/19 12:08 29.5 2 -24.8 0.0 0.0 0 0.0 0.0 1022.0 0.0 29.5 27.0 0.0
23/10/19 12:07 29.2 2 -25.0 0.0 0.0 0 0.0 0.0 1022.0 0.0 29.2 26.7 0.0
23/10/19 12:06 29.1 2 -25.1 0.0 0.0 0 0.0 0.0 1022.0 0.0 29.1 26.7 0.0
23/10/19 12:05 29.4 2 -24.9 0.0 0.0 0 0.0 0.0 1022.0 0.0 29.4 26.9 0.0
23/10/19 12:04 30.0 2 -24.5 0.0 0.0 0 0.0 0.0 1022.0 0.0 30.0 27.3 0.0
23/10/19 12:03 29.9 2 -24.6 0.0 0.0 0 0.0 0.0 1022.0 0.0 29.9 27.3 0.0
23/10/19 12:02 29.2 2 -25.0 0.0 0.0 0 0.0 0.0 1022.0 0.0 29.2 26.7 0.0
23/10/19 12:00 29.1 2 -25.1 0.0 0.0 0 0.0 0.0 1022.0 0.0 29.1 26.7 0.0
23/10/19 11:59 29.2 2 -25.0 0.0 0.0 0 0.0 0.0 1022.0 0.0 29.2 26.7 0.0
23/10/19 11:58 29.4 2 -24.9 0.0 0.0 0 0.0 0.0 1022.0 0.0 29.4 26.9 0.0
23/10/19 11:57 29.4 2 -24.9 0.0 0.0 0 0.0 0.0 1022.0 0.0 29.4 26.9 0.0
23/10/19 11:56 29.5 2 -24.8 0.0 0.0 0 0.0 0.0 1022.0 0.0 29.5 27.0 0.0
23/10/19 11:55 29.7 2 -24.7 0.0 0.0 0 0.0 0.0 1022.0 0.0 29.7 27.1 0.0
23/10/19 11:54 29.9 2 -24.6 0.0 0.0 0 0.0 0.0 1022.0 0.0 29.9 27.3 0.0
23/10/19 11:53 29.7 2 -24.7 0.0 0.0 0 0.0 0.0 1022.0 0.0 29.7 27.1 0.0
23/10/19 11:52 29.4 2 -24.9 0.0 0.0 0 0.0 0.0 1022.0 0.0 29.4 26.9 0.0
23/10/19 11:51 29.2 2 -25.0 0.0 0.0 0 0.0 0.0 1022.0 0.0 29.2 26.7 0.0
23/10/19 11:50 29.2 2 -25.0 0.0 0.0 0 0.0 0.0 1022.0 0.0 29.2 26.7 0.0
23/10/19 11:49 29.3 2 -25.0 0.0 0.0 0 0.0 0.0 1022.0 0.0 29.3 26.8 0.0
23/10/19 11:48 29.9 2 -24.6 0.0 0.0 0 0.0 0.0 1022.0 0.0 30.5 27.3 0.0
23/10/19 11:47 30.5 2 -24.2 0.0 0.0 0 0.0 0.0 1022.0 0.0 30.5 27.7 0.0
23/10/19 11:45 30.1 2 -24.5 0.0 0.0 0 0.0 0.0 1022.0 0.0 30.1 27.4 0.0
23/10/19 11:44 29.8 2 -24.7 0.0 0.0 0 0.0 0.0 1022.0 0.0 29.8 27.2 0.0
23/10/19 11:43 29.5 2 -24.8 0.0 0.0 0 0.0 0.0 1022.0 0.0 29.5 27.0 0.0
23/10/19 11:42 29.3 2 -25.0 0.0 0.0 0 0.0 0.0 1022.0 0.0 29.0 26.8 0.0
23/10/19 11:41 29.0 2 -25.2 0.0 0.0 0 0.0 0.0 1022.0 0.0 28.7 26.6 0.0
23/10/19 11:40 28.6 2 -25.4 0.0 0.0 0 0.0 0.0 1022.0 0.0 28.6 26.3 0.0
23/10/19 11:39 28.7 2 -25.4 0.0 0.0 0 0.0 0.0 1022.0 0.0 28.7 26.4 0.0
23/10/19 11:38 28.8 2 -25.3 0.0 0.0 0 0.0 0.0 1022.0 0.0 28.8 26.5 0.0
23/10/19 11:37 29.1 2 -25.1 0.0 0.0 0 0.0 0.0 1023.0 0.0 29.1 26.7 0.0
23/10/19 11:36 28.9 2 -25.2 0.0 0.0 0 0.0 0.0 1023.0 0.0 28.9 26.5 0.0
23/10/19 11:35 28.7 2 -25.4 0.0 0.0 0 0.0 0.0 1023.0 0.0 28.7 26.4 0.0
23/10/19 11:34 28.5 2 -25.5 0.0 0.0 0 0.0 0.0 1023.0 0.0 28.2 26.2 0.0
23/10/19 11:33 28.2 2 -25.7 0.0 0.0 0 0.0 0.0 1023.0 0.0 28.1 26.0 0.0
23/10/19 11:32 28.4 2 -25.5 0.0 0.0 0 0.0 0.0 1023.0 0.0 28.4 26.2 0.0
23/10/19 11:30 28.4 2 -25.5 0.0 0.0 0 0.0 0.0 1023.0 0.0 28.4 26.2 0.0
23/10/19 11:29 28.6 2 -25.4 0.0 0.0 0 0.0 0.0 1023.0 0.0 28.6 26.3 0.0
23/10/19 11:28 29.0 2 -25.2 0.0 0.0 0 0.0 0.0 1023.0 0.0 29.0 26.6 0.0
23/10/19 11:27 28.9 2 -25.2 0.0 0.0 0 0.0 0.0 1023.0 0.0 28.9 26.5 0.0
23/10/19 11:26 28.8 2 -25.3 0.0 0.0 0 0.0 0.0 1023.0 0.0 28.8 26.5 0.0
23/10/19 11:25 28.7 2 -25.4 0.0 0.0 0 0.0 0.0 1023.0 0.0 28.9 26.4 0.0
23/10/19 11:24 29.0 2 -25.2 0.0 0.0 0 0.0 0.0 1023.0 0.0 29.0 26.6 0.0
23/10/19 11:23 28.9 2 -25.2 0.0 0.0 0 0.0 0.0 1023.0 0.0 28.9 26.5 0.0
23/10/19 11:22 28.6 2 -25.4 0.0 0.0 0 0.0 0.0 1023.0 0.0 28.6 26.3 0.0
23/10/19 11:21 28.3 2 -25.6 0.0 0.0 0 0.0 0.0 1023.0 0.0 28.3 26.1 0.0
23/10/19 11:20 28.0 2 -25.8 0.0 0.0 0 0.0 0.0 1023.0 0.0 27.9 25.9 0.0
23/10/19 11:19 27.9 2 -25.9 0.0 0.0 0 0.0 0.0 1023.0 0.0 27.9 25.8 0.0
23/10/19 11:18 28.0 2 -25.8 0.0 0.0 0 0.0 0.0 1023.0 0.0 28.0 25.9 0.0
23/10/19 11:17 28.0 2 -25.8 0.0 0.0 0 0.0 0.0 1023.0 0.0 28.0 25.9 0.0
23/10/19 11:14 28.0 2 -25.8 0.0 0.0 0 0.0 0.0 1023.0 0.0 28.0 25.9 0.0
23/10/19 11:13 28.0 2 -25.8 0.0 0.0 0 0.0 0.0 1023.0 0.0 28.0 25.9 0.0
23/10/19 11:12 27.8 2 -25.9 0.0 0.0 0 0.0 0.0 1023.0 0.0 27.8 25.7 0.0
23/10/19 11:11 27.7 2 -26.0 0.0 0.0 0 0.0 0.0 1023.0 0.0 27.7 25.7 0.0
23/10/19 11:10 27.8 2 -25.9 0.0 0.0 0 0.0 0.0 1023.0 0.0 27.8 25.7 0.0
23/10/19 11:09 27.9 2 -25.9 0.0 0.0 0 0.0 0.0 1023.0 0.0 27.9 25.8 0.0
23/10/19 11:08 28.3 2 -25.6 0.0 0.0 0 0.0 0.0 1023.0 0.0 28.3 26.1 0.0
23/10/19 11:07 28.3 2 -25.6 0.0 0.0 0 0.0 0.0 1024.0 0.0 28.3 26.1 0.0
23/10/19 11:06 28.4 2 -25.5 0.0 0.0 0 0.0 0.0 1024.0 0.0 28.4 26.2 0.0
23/10/19 11:05 28.6 2 -25.4 0.0 0.0 0 0.0 0.0 1024.0 0.0 28.6 26.3 0.0
23/10/19 11:04 28.6 2 -25.4 0.0 0.0 0 0.0 0.0 1024.0 0.0 28.6 26.3 0.0
23/10/19 11:03 28.7 2 -25.4 0.0 0.0 0 0.0 0.0 1024.0 0.0 28.9 26.4 0.0
23/10/19 11:02 28.9 2 -25.2 0.0 0.0 0 0.0 0.0 1024.0 0.0 28.9 26.5 0.0
23/10/19 11:00 28.8 2 -25.3 0.0 0.0 0 0.0 0.0 1024.0 0.0 28.8 26.5 0.0
23/10/19 10:59 28.5 2 -25.5 0.0 0.0 0 0.0 0.0 1024.0 0.0 28.5 26.2 0.0
23/10/19 10:58 28.4 2 -25.5 0.0 0.0 0 0.0 0.0 1024.0 0.0 28.4 26.2 0.0
23/10/19 10:57 28.5 2 -25.5 0.0 0.0 0 0.0 0.0 1024.0 0.0 28.5 26.2 0.0
23/10/19 10:56 28.6 2 -25.4 0.0 0.0 0 0.0 0.0 1024.0 0.0 28.5 26.3 0.0
23/10/19 10:55 28.5 2 -25.5 0.0 0.0 0 0.0 0.0 1024.0 0.0 28.5 26.2 0.0
23/10/19 10:54 28.3 2 -25.6 0.0 0.0 0 0.0 0.0 1024.0 0.0 28.3 26.1 0.0
23/10/19 10:53 28.3 2 -25.6 0.0 0.0 0 0.0 0.0 1024.0 0.0 28.3 26.1 0.0
23/10/19 10:52 28.3 2 -25.6 0.0 0.0 0 0.0 0.0 1023.0 0.0 28.3 26.1 0.0
23/10/19 10:51 28.1 2 -25.7 0.0 0.0 0 0.0 0.0 1023.0 0.0 28.1 25.9 0.0
23/10/19 10:50 27.8 2 -25.9 0.0 0.0 0 0.0 0.0 1023.0 0.0 27.8 25.7 0.0
23/10/19 10:49 27.6 2 -26.1 0.0 0.0 0 0.0 0.0 1023.0 0.0 27.6 25.6 0.0
23/10/19 10:48 27.4 2 -26.2 0.0 0.0 0 0.0 0.0 1023.0 0.0 27.2 25.4 0.0
23/10/19 10:47 27.3 2 -26.3 0.0 0.0 0 0.0 0.0 1023.0 0.0 27.3 25.4 0.0
23/10/19 10:44 28.2 2 -25.7 0.0 0.0 0 0.0 0.0 1023.0 0.0 28.2 26.0 0.0
23/10/19 10:43 28.1 2 -25.7 0.0 0.0 0 0.0 0.0 1023.0 0.0 28.1 25.9 0.0
23/10/19 10:42 28.0 2 -25.8 0.0 0.0 0 0.0 0.0 1023.0 0.0 28.0 25.9 0.0
23/10/19 10:41 27.6 2 -26.1 0.0 0.0 0 0.0 0.0 1023.0 0.0 27.6 25.6 0.0
23/10/19 10:40 27.6 2 -26.1 0.0 0.0 0 0.0 0.0 1023.0 0.0 27.6 25.6 0.0
23/10/19 10:39 27.4 2 -26.2 0.0 0.0 0 0.0 0.0 1023.0 0.0 27.4 25.4 0.0
23/10/19 10:38 27.4 2 -26.2 0.0 0.0 0 0.0 0.0 1023.0 0.0 27.4 25.4 0.0
23/10/19 10:37 27.4 2 -26.2 0.0 0.0 0 0.0 0.0 1022.0 0.0 27.4 25.4 0.0
23/10/19 10:36 27.4 2 -26.2 0.0 0.0 0 0.0 0.0 1022.0 0.0 27.4 25.4 0.0
23/10/19 10:35 27.4 2 -26.2 0.0 0.0 0 0.0 0.0 1022.0 0.0 27.4 25.4 0.0
23/10/19 10:34 27.4 2 -26.2 0.0 0.0 0 0.0 0.0 1022.0 0.0 27.4 25.4 0.0
23/10/19 10:33 27.4 2 -26.2 0.0 0.0 0 0.0 0.0 1022.0 0.0 27.4 25.4 0.0
23/10/19 10:32 27.2 2 -26.3 0.0 0.0 0 0.0 0.0 1022.0 0.0 27.1 25.3 0.0
23/10/19 10:15 25.3 2 -27.5 0.0 0.0 0 0.0 0.0 1023.0 0.0 25.3 25.3 0.0
23/10/19 10:14 25.6 2 -27.3 0.0 0.0 0 0.0 0.0 1023.0 0.0 25.6 25.6 0.0
23/10/19 10:13 25.6 2 -27.3 0.0 0.0 0 0.0 0.0 1023.0 0.0 25.6 25.6 0.0
23/10/19 10:12 25.7 2 -27.3 0.0 0.0 0 0.0 0.0 1023.0 0.0 25.7 25.7 0.0
23/10/19 10:11 25.5 2 -27.4 0.0 0.0 0 0.0 0.0 1023.0 0.0 25.5 25.5 0.0
23/10/19 10:10 25.4 2 -27.5 0.0 0.0 0 0.0 0.0 1023.0 0.0 25.5 25.4 0.0
23/10/19 10:09 25.6 2 -27.3 0.0 0.0 0 0.0 0.0 1023.0 0.0 25.6 25.6 0.0
23/10/19 10:08 25.8 2 -27.2 0.0 0.0 0 0.0 0.0 1023.0 0.0 25.8 25.8 0.0
23/10/19 10:07 25.8 2 -27.2 0.0 0.0 0 0.0 0.0 1023.0 0.0 25.8 25.8 0.0
23/10/19 10:06 25.9 2 -27.2 0.0 0.0 0 0.0 0.0 1023.0 0.0 25.9 25.9 0.0
23/10/19 10:05 26.1 2 -27.0 0.0 0.0 0 0.0 0.0 1023.0 0.0 26.1 26.1 0.0
23/10/19 10:04 26.1 2 -27.0 0.0 0.0 0 0.0 0.0 1023.0 0.0 26.1 26.1 0.0
23/10/19 10:03 26.2 2 -27.0 0.0 0.0 0 0.0 0.0 1023.0 0.0 26.4 26.2 0.0
23/10/19 10:02 26.4 2 -26.8 0.0 0.0 0 0.0 0.0 1023.0 0.0 26.5 26.4 0.0
23/10/19 09:59 26.6 2 -26.7 0.0 0.0 0 0.0 0.0 1023.0 0.0 26.6 26.6 0.0
23/10/19 09:58 26.6 2 -26.7 0.0 0.0 0 0.0 0.0 1023.0 0.0 26.6 26.6 0.0
23/10/19 09:57 26.6 2 -26.7 0.0 0.0 0 0.0 0.0 1023.0 0.0 26.6 26.6 0.0
23/10/19 09:56 26.6 2 -26.7 0.0 0.0 0 0.0 0.0 1023.0 0.0 26.6 26.6 0.0
23/10/19 09:55 26.5 2 -26.8 0.0 0.0 0 0.0 0.0 1023.0 0.0 26.4 26.5 0.0
23/10/19 09:54 26.4 2 -26.8 0.0 0.0 0 0.0 0.0 1023.0 0.0 26.3 26.4 0.0
23/10/19 09:53 26.3 2 -26.9 0.0 0.0 0 0.0 0.0 1023.0 0.0 26.3 26.3 0.0
23/10/19 09:52 26.3 10 -7.8 0.0 0.0 0 0.0 0.0 1023.0 0.0 26.3 26.3 0.0
23/10/19 09:51 26.2 10 -7.9 0.0 0.0 0 0.0 0.0 1023.0 0.0 26.2 26.2 0.0
23/10/19 09:50 26.1 7 -12.5 0.0 0.0 0 0.0 0.0 1023.0 0.0 26.1 26.1 0.0
23/10/19 09:49 25.9 13 -4.7 0.0 0.0 0 0.0 0.0 1023.0 0.0 25.9 25.9 0.0
23/10/19 09:48 25.8 10 -8.2 0.0 0.0 0 0.0 0.0 1023.0 0.0 25.8 25.8 0.0
23/10/19 09:47 25.7 2 -27.3 0.0 0.0 0 0.0 0.0 1023.0 0.0 25.7 25.7 0.0
23/10/19 09:43 25.2 15 -3.3 0.0 0.0 0 0.0 0.0 1023.0 0.0 25.2 25.2 0.0
23/10/19 09:42 25.0 13 -5.4 0.0 0.0 0 0.0 0.0 1023.0 0.0 25.0 25.0 0.0
23/10/19 09:41 24.8 13 -5.5 0.0 0.0 0 0.0 0.0 1023.0 0.0 24.8 24.8 0.0
23/10/19 09:40 24.7 8 -11.8 0.0 0.0 0 0.0 0.0 1023.0 0.0 24.7 24.7 0.0
23/10/19 09:39 24.9 10 -8.8 0.0 0.0 0 0.0 0.0 1023.0 0.0 24.9 24.9 0.0
23/10/19 09:38 24.8 13 -5.5 0.0 0.0 0 0.0 0.0 1023.0 0.0 24.8 24.8 0.0
23/10/19 09:37 24.7 13 -5.6 0.0 0.0 0 0.0 0.0 1023.0 0.0 24.7 24.7 0.0
23/10/19 09:36 24.7 15 -3.7 0.0 0.0 0 0.0 0.0 1023.0 0.0 24.7 24.7 0.0
23/10/19 09:35 24.8 15 -3.6 0.0 0.0 0 0.0 0.0 1023.0 0.0 24.8 24.8 0.0
23/10/19 09:34 24.8 22 1.6 0.0 0.0 0 0.0 0.0 1023.0 0.0 24.8 24.8 0.0
23/10/19 09:33 24.8 22 1.6 0.0 0.0 0 0.0 0.0 1023.0 0.0 24.8 24.8 0.0
23/10/19 09:32 24.7 20 0.2 0.0 0.0 0 0.0 0.0 1023.0 0.0 24.7 24.7 0.0
23/10/19 09:30 24.5 22 1.4 0.0 0.0 0 0.0 0.0 1023.0 0.0 24.5 24.5 0.0
23/10/19 09:29 24.4 22 1.3 0.0 0.0 0 0.0 0.0 1023.0 0.0 24.4 24.4 0.0
23/10/19 09:28 24.4 22 1.3 0.0 0.0 0 0.0 0.0 1023.0 0.0 24.4 24.4 0.0
23/10/19 09:27 24.4 22 1.3 0.0 0.0 0 0.0 0.0 1023.0 0.0 24.4 24.4 0.0
23/10/19 09:26 24.4 22 1.3 0.0 0.0 0 0.0 0.0 1023.0 0.0 24.4 24.4 0.0
23/10/19 09:25 24.4 23 1.9 0.0 0.0 0 0.0 0.0 1023.0 0.0 24.3 24.4 0.0
23/10/19 09:24 24.3 23 1.8 0.0 0.0 0 0.0 0.0 1023.0 0.0 24.2 24.3 0.0
23/10/19 09:23 24.4 25 3.1 0.0 0.0 0 0.0 0.0 1023.0 0.0 24.4 24.4 0.0
23/10/19 09:22 24.3 25 3.0 0.0 0.0 0 0.0 0.0 1022.0 0.0 24.3 24.3 0.0
23/10/19 09:21 24.3 26 3.6 0.0 0.0 0 0.0 0.0 1022.0 0.0 24.3 24.3 0.0
23/10/19 09:20 24.2 26 3.5 0.0 0.0 0 0.0 0.0 1022.0 0.0 24.2 24.2 0.0
23/10/19 09:19 24.0 26 3.3 0.0 0.0 0 0.0 0.0 1022.0 0.0 24.0 24.0 0.0
23/10/19 09:18 23.9 28 4.3 0.0 0.0 0 0.0 0.0 1022.0 0.0 23.7 23.9 0.0
23/10/19 09:17 23.7 27 3.6 0.0 0.0 0 0.0 0.0 1022.0 0.0 0.0 23.7 0.0
23/10/19 09:13 23.5 29 4.4 0.0 0.0 0 0.0 0.0 1022.0 0.0 23.5 23.5 0.0
23/10/19 09:12 23.6 32 5.9 0.0 0.0 0 0.0 0.0 1022.0 0.0 23.6 23.6 0.0
23/10/19 09:11 23.5 31 5.4 0.0 0.0 0 0.0 0.0 1022.0 0.0 23.5 23.5 0.0
23/10/19 09:10 23.5 31 5.4 0.0 0.0 0 0.0 0.0 1022.0 0.0 23.5 23.5 0.0
23/10/19 09:09 23.6 32 5.9 0.0 0.0 0 0.0 0.0 1022.0 0.0 23.5 23.6 0.0
23/10/19 09:08 23.4 33 6.2 0.0 0.0 0 0.0 0.0 1022.0 0.0 23.4 23.4 0.0
23/10/19 09:07 23.3 33 6.1 0.0 0.0 0 0.0 0.0 1023.0 0.0 23.3 23.3 0.0
23/10/19 09:06 23.1 33 5.9 0.0 0.0 0 0.0 0.0 1023.0 0.0 23.1 23.1 0.0
23/10/19 09:05 22.9 33 5.8 0.0 0.0 0 0.0 0.0 1023.0 0.0 22.9 22.9 0.0
23/10/19 09:04 22.7 34 6.0 0.0 0.0 0 0.0 0.0 1023.0 0.0 22.7 22.7 0.0
23/10/19 09:03 22.6 33 5.5 0.0 0.0 0 0.0 0.0 1023.0 0.0 22.6 22.6 0.0
23/10/19 09:02 22.5 34 5.8 0.0 0.0 0 0.0 0.0 1023.0 0.0 22.5 22.5 0.0
23/10/19 08:59 22.1 34 5.5 0.0 0.0 0 0.0 0.0 1023.0 0.0 22.1 22.1 0.0
23/10/19 08:58 22.1 35 5.9 0.0 0.0 0 0.0 0.0 1023.0 0.0 22.1 22.1 0.0
23/10/19 08:57 21.9 36 6.1 0.0 0.0 0 0.0 0.0 1023.0 0.0 21.9 21.9 0.0
23/10/19 08:56 21.7 36 6.0 0.0 0.0 0 0.0 0.0 1023.0 0.0 21.6 21.7 0.0
23/10/19 08:55 21.6 35 5.5 0.0 0.0 0 0.0 0.0 1023.0 0.0 21.6 21.6 0.0
23/10/19 08:54 21.6 35 5.5 0.0 0.0 0 0.0 0.0 1023.0 0.0 21.6 21.6 0.0
23/10/19 08:53 21.5 36 5.8 0.0 0.0 0 0.0 0.0 1023.0 0.0 21.5 21.5 0.0
23/10/19 08:52 21.5 37 6.2 0.0 0.0 0 0.0 0.0 1023.0 0.0 21.5 21.5 0.0
23/10/19 08:51 21.5 37 6.2 0.0 0.0 0 0.0 0.0 1023.0 0.0 21.5 21.5 0.0
23/10/19 08:50 21.5 37 6.2 0.0 0.0 0 0.0 0.0 1023.0 0.0 21.5 21.5 0.0
23/10/19 08:49 21.5 38 6.6 0.0 0.0 0 0.0 0.0 1023.0 0.0 21.5 21.5 0.0
23/10/19 08:48 21.5 39 7.0 0.0 0.0 0 0.0 0.0 1023.0 0.0 21.5 21.5 0.0
23/10/19 08:47 21.4 39 6.9 0.0 0.0 0 0.0 0.0 1023.0 0.0 21.4 21.4 0.0
23/10/19 08:44 20.7 40 6.6 0.0 0.0 0 0.0 0.0 1023.0 0.0 20.7 20.7 0.0
23/10/19 08:43 20.6 41 6.9 0.0 0.0 0 0.0 0.0 1023.0 0.0 20.6 20.6 0.0
23/10/19 08:42 20.5 42 7.1 0.0 0.0 0 0.0 0.0 1023.0 0.0 20.5 20.5 0.0
23/10/19 08:41 20.5 42 7.1 0.0 0.0 0 0.0 0.0 1023.0 0.0 20.5 20.5 0.0
23/10/19 08:40 20.5 42 7.1 0.0 0.0 0 0.0 0.0 1023.0 0.0 20.3 20.5 0.0
23/10/19 08:39 20.3 41 6.6 0.0 0.0 0 0.0 0.0 1023.0 0.0 20.2 20.3 0.0
23/10/19 08:38 20.0 42 6.7 0.0 0.0 0 0.0 0.0 1023.0 0.0 20.0 20.0 0.0
23/10/19 08:37 19.9 43 6.9 0.0 0.0 0 0.0 0.0 1023.0 0.0 19.9 19.9 0.0
23/10/19 08:36 19.9 43 6.9 0.0 0.0 0 0.0 0.0 1023.0 0.0 19.9 19.9 0.0
23/10/19 08:35 19.9 43 6.9 0.0 0.0 0 0.0 0.0 1023.0 0.0 19.9 19.9 0.0
23/10/19 08:34 19.9 43 6.9 0.0 0.0 0 0.0 0.0 1023.0 0.0 19.9 19.9 0.0
23/10/19 08:33 19.9 44 7.3 0.0 0.0 0 0.0 0.0 1023.0 0.0 19.9 19.9 0.0
23/10/19 08:32 19.7 44 7.1 0.0 0.0 0 0.0 0.0 1023.0 0.0 0.0 19.7 0.0
23/10/19 08:30 19.5 45 7.2 0.0 0.0 0 0.0 0.0 1023.0 0.0 19.5 19.5 0.0
23/10/19 08:29 19.4 45 7.2 0.0 0.0 0 0.0 0.0 1023.0 0.0 19.4 19.4 0.0
23/10/19 08:28 19.3 45 7.1 0.0 0.0 0 0.0 0.0 1023.0 0.0 19.3 19.3 0.0
23/10/19 08:27 19.1 45 6.9 0.0 0.0 0 0.0 0.0 1023.0 0.0 19.1 19.1 0.0
23/10/19 08:26 19.0 45 6.8 0.0 0.0 0 0.0 0.0 1023.0 0.0 19.0 19.0 0.0
23/10/19 08:25 18.9 47 7.3 0.0 0.0 0 0.0 0.0 1023.0 0.0 18.9 18.9 0.0
23/10/19 08:24 18.8 47 7.2 0.0 0.0 0 0.0 0.0 1023.0 0.0 18.7 18.8 0.0
23/10/19 08:23 18.6 49 7.7 0.0 0.0 0 0.0 0.0 1023.0 0.0 18.6 18.6 0.0
23/10/19 08:22 18.5 49 7.6 0.0 0.0 0 0.0 0.0 1023.0 0.0 18.5 18.5 0.0
23/10/19 08:21 18.2 49 7.3 0.0 0.0 0 0.0 0.0 1023.0 0.0 18.2 18.2 0.0
23/10/19 08:20 18.0 49 7.1 0.0 0.0 0 0.0 0.0 1023.0 0.0 18.0 18.0 0.0
23/10/19 08:19 18.0 49 7.1 0.0 0.0 0 0.0 0.0 1023.0 0.0 18.0 18.0 0.0
23/10/19 08:18 18.1 50 7.5 0.0 0.0 0 0.0 0.0 1023.0 0.0 18.1 18.1 0.0
23/10/19 08:17 18.0 49 7.1 0.0 0.0 0 0.0 0.0 1023.0 0.0 18.0 18.0 0.0
23/10/19 08:15 17.6 50 7.0 0.0 0.0 0 0.0 0.0 1023.0 0.0 17.6 17.6 0.0
23/10/19 08:14 17.6 50 7.0 0.0 0.0 0 0.0 0.0 1023.0 0.0 17.6 17.6 0.0
23/10/19 08:13 17.4 53 7.7 0.0 0.0 0 0.0 0.0 1023.0 0.0 17.4 17.4 0.0
23/10/19 08:12 17.4 53 7.7 0.0 0.0 0 0.0 0.0 1023.0 0.0 17.4 17.4 0.0
23/10/19 08:11 17.3 55 8.2 0.0 0.0 0 0.0 0.0 1023.0 0.0 17.3 17.3 0.0
23/10/19 08:10 17.2 55 8.1 0.0 0.0 0 0.0 0.0 1023.0 0.0 17.2 17.2 0.0
23/10/19 08:09 17.1 55 8.0 0.0 0.0 0 0.0 0.0 1023.0 0.0 17.1 17.1 0.0
23/10/19 08:08 17.0 55 7.9 0.0 0.0 0 0.0 0.0 1023.0 0.0 16.9 17.0 0.0
23/10/19 08:07 16.8 56 8.0 0.0 0.0 0 0.0 0.0 1023.0 0.0 16.8 16.8 0.0
23/10/19 08:06 16.5 57 7.9 0.0 0.0 0 0.0 0.0 1023.0 0.0 16.5 16.5 0.0
23/10/19 08:05 16.5 57 7.9 0.0 0.0 0 0.0 0.0 1023.0 0.0 16.5 16.5 0.0
23/10/19 08:04 16.5 58 8.2 0.0 0.0 0 0.0 0.0 1023.0 0.0 16.5 16.5 0.0
23/10/19 08:03 16.4 58 8.1 0.0 0.0 0 0.0 0.0 1023.0 0.0 16.4 16.4 0.0
23/10/19 08:02 16.3 58 8.0 0.0 0.0 0 0.0 0.0 1023.0 0.0 16.3 16.3 0.0
23/10/19 07:59 16.1 59 8.1 0.0 0.0 0 0.0 0.0 1023.0 0.0 16.1 16.1 0.0
23/10/19 07:58 16.0 59 8.0 0.0 0.0 0 0.0 0.0 1023.0 0.0 16.0 16.0 0.0
23/10/19 07:57 15.9 59 7.9 0.0 0.0 0 0.0 0.0 1023.0 0.0 15.9 15.9 0.0
23/10/19 07:56 15.9 59 7.9 0.0 0.0 0 0.0 0.0 1023.0 0.0 15.9 15.9 0.0
23/10/19 07:55 15.8 59 7.8 0.0 0.0 0 0.0 0.0 1023.0 0.0 15.8 15.8 0.0
23/10/19 07:54 15.8 59 7.8 0.0 0.0 0 0.0 0.0 1023.0 0.0 15.8 15.8 0.0
23/10/19 07:53 15.8 60 8.0 0.0 0.0 0 0.0 0.0 1023.0 0.0 15.8 15.8 0.0
23/10/19 07:52 15.8 59 7.8 0.0 0.0 0 0.0 0.0 1023.0 0.0 15.8 15.8 0.0
23/10/19 07:51 15.8 59 7.8 0.0 0.0 0 0.0 0.0 1023.0 0.0 15.8 15.8 0.0
23/10/19 07:50 15.8 59 7.8 0.0 0.0 0 0.0 0.0 1023.0 0.0 15.8 15.8 0.0
23/10/19 07:49 15.8 59 7.8 0.0 0.0 0 0.0 0.0 1023.0 0.0 15.8 15.8 0.0
23/10/19 07:48 15.7 60 8.0 0.0 0.0 0 0.0 0.0 1023.0 0.0 15.7 15.7 0.0
23/10/19 07:47 15.7 60 8.0 0.0 0.0 0 0.0 0.0 1023.0 0.0 0.0 15.7 0.0
23/10/19 07:41 15.6 61 8.1 0.0 0.0 0 0.0 0.0 1023.0 0.0 15.6 15.6 0.0
23/10/19 07:40 15.6 61 8.1 0.0 0.0 0 0.0 0.0 1023.0 0.0 15.6 15.6 0.0
23/10/19 07:39 15.6 61 8.1 0.0 0.0 0 0.0 0.0 1023.0 0.0 15.7 15.6 0.0
23/10/19 07:38 15.7 62 8.4 0.0 0.0 0 0.0 0.0 1023.0 0.0 15.8 15.7 0.0
23/10/19 07:37 15.8 62 8.5 0.0 0.0 0 0.0 0.0 1023.0 0.0 15.8 15.8 0.0
23/10/19 07:36 15.9 63 8.9 0.0 0.0 0 0.0 0.0 1023.0 0.0 15.9 15.9 0.0
23/10/19 07:35 15.9 63 8.9 0.0 0.0 0 0.0 0.0 1023.0 0.0 15.9 15.9 0.0
23/10/19 07:34 16.0 63 9.0 0.0 0.0 0 0.0 0.0 1023.0 0.0 16.0 16.0 0.0
23/10/19 07:33 16.1 63 9.1 0.0 0.0 0 0.0 0.0 1023.0 0.0 16.1 16.1 0.0
23/10/19 07:32 16.1 63 9.1 0.0 0.0 0 0.0 0.0 1023.0 0.0 16.1 16.1 0.0
23/10/19 07:29 16.3 62 9.0 0.0 0.0 0 0.0 0.0 1023.0 0.0 16.3 16.3 0.0
23/10/19 07:28 16.1 62 8.8 0.0 0.0 0 0.0 0.0 1023.0 0.0 16.1 16.1 0.0
23/10/19 07:27 16.1 62 8.8 0.0 0.0 0 0.0 0.0 1023.0 0.0 16.1 16.1 0.0
23/10/19 07:26 15.9 63 8.9 0.0 0.0 0 0.0 0.0 1023.0 0.0 15.9 15.9 0.0
23/10/19 07:25 15.9 63 8.9 0.0 0.0 0 0.0 0.0 1023.0 0.0 15.9 15.9 0.0
23/10/19 07:24 15.8 63 8.8 0.0 0.0 0 0.0 0.0 1023.0 0.0 15.8 15.8 0.0
23/10/19 07:23 15.7 64 8.9 0.0 0.0 0 0.0 0.0 1023.0 0.0 15.6 15.7 0.0
23/10/19 07:22 15.5 64 8.7 0.0 0.0 0 0.0 0.0 1023.0 0.0 15.5 15.5 0.0
23/10/19 07:21 15.4 64 8.6 0.0 0.0 0 0.0 0.0 1023.0 0.0 15.4 15.4 0.0
23/10/19 07:20 15.3 64 8.5 0.0 0.0 0 0.0 0.0 1023.0 0.0 15.3 15.3 0.0
23/10/19 07:19 15.3 64 8.5 0.0 0.0 0 0.0 0.0 1023.0 0.0 15.3 15.3 0.0
23/10/19 07:18 15.2 65 8.7 0.0 0.0 0 0.0 0.0 1023.0 0.0 15.2 15.2 0.0
23/10/19 07:17 15.1 65 8.6 0.0 0.0 0 0.0 0.0 1023.0 0.0 15.1 15.1 0.0
23/10/19 07:12 14.8 66 8.5 0.0 0.0 0 0.0 0.0 1023.0 0.0 14.8 14.8 0.0
23/10/19 07:11 14.8 66 8.5 0.0 0.0 0 0.0 0.0 1023.0 0.0 14.8 14.8 0.0
23/10/19 07:10 14.8 66 8.5 0.0 0.0 0 0.0 0.0 1023.0 0.0 14.8 14.8 0.0
23/10/19 07:09 14.7 67 8.6 0.0 0.0 0 0.0 0.0 1023.0 0.0 14.7 14.7 0.0
23/10/19 07:08 14.7 67 8.6 0.0 0.0 0 0.0 0.0 1023.0 0.0 14.6 14.7 0.0
23/10/19 07:07 14.5 68 8.7 0.0 0.0 0 0.0 0.0 1022.0 0.0 14.5 14.5 0.0
23/10/19 07:06 14.4 69 8.8 0.0 0.0 0 0.0 0.0 1022.0 0.0 14.4 14.4 0.0
23/10/19 07:05 14.3 69 8.7 0.0 0.0 0 0.0 0.0 1022.0 0.0 14.3 14.3 0.0
23/10/19 07:04 14.2 70 8.8 0.0 0.0 0 0.0 0.0 1022.0 0.0 14.2 14.2 0.0
23/10/19 07:03 14.0 71 8.8 0.0 0.0 0 0.0 0.0 1022.0 0.0 14.0 14.0 0.0
23/10/19 07:02 13.8 72 8.8 0.0 0.0 0 0.0 0.0 1022.0 0.0 13.8 13.8 0.0
23/10/19 06:59 12.6 76 8.5 0.0 0.0 0 0.0 0.0 1022.0 0.0 12.6 12.6 0.0
23/10/19 06:58 12.2 77 8.3 0.0 0.0 0 0.0 0.0 1022.0 0.0 12.2 12.2 0.0
23/10/19 06:57 11.7 78 8.0 0.0 0.0 0 0.0 0.0 1022.0 0.0 11.7 11.7 0.0
23/10/19 06:56 11.1 78 7.4 0.0 0.0 0 0.0 0.0 1022.0 0.0 11.1 11.1 0.0
23/10/19 06:55 10.6 78 6.9 0.0 0.0 0 0.0 0.0 1022.0 0.0 10.6 10.6 0.0
23/10/19 06:54 10.1 77 6.2 0.0 0.0 0 0.0 0.0 1022.0 0.0 10.1 10.1 0.0
23/10/19 06:53 9.9 78 6.2 0.0 0.0 0 0.0 0.0 1022.0 0.0 9.8 9.9 0.0
23/10/19 06:52 9.8 77 6.0 0.0 0.0 0 0.0 0.0 1022.0 0.0 9.8 9.8 0.0
23/10/19 06:51 9.7 77 5.9 0.0 0.0 0 0.0 0.0 1022.0 0.0 9.7 9.7 0.0
23/10/19 06:50 9.7 77 5.9 0.0 0.0 0 0.0 0.0 1022.0 0.0 9.7 9.7 0.0
23/10/19 06:49 9.7 77 5.9 0.0 0.0 0 0.0 0.0 1022.0 0.0 9.7 9.7 0.0
23/10/19 06:48 9.7 77 5.9 0.0 0.0 0 0.0 0.0 1022.0 0.0 9.7 9.7 0.0
23/10/19 06:47 9.7 77 5.9 0.0 0.0 0 0.0 0.0 1022.0 0.0 9.7 9.7 0.0
23/10/19 06:45 9.6 76 5.6 0.0 0.0 0 0.0 0.0 1022.0 0.0 9.6 9.6 0.0
23/10/19 06:44 9.6 76 5.6 0.0 0.0 0 0.0 0.0 1022.0 0.0 9.6 9.6 0.0
23/10/19 06:43 9.6 76 5.6 0.0 0.0 0 0.0 0.0 1022.0 0.0 9.6 9.6 0.0
23/10/19 06:42 9.6 76 5.6 0.0 0.0 0 0.0 0.0 1022.0 0.0 9.6 9.6 0.0
23/10/19 06:41 9.5 76 5.5 0.0 0.0 0 0.0 0.0 1022.0 0.0 9.5 9.5 0.0
23/10/19 06:40 9.5 76 5.5 0.0 0.0 0 0.0 0.0 1022.0 0.0 9.5 9.5 0.0
23/10/19 06:39 9.5 76 5.5 0.0 0.0 0 0.0 0.0 1022.0 0.0 9.5 9.5 0.0
23/10/19 06:38 9.5 76 5.5 0.0 0.0 0 0.0 0.0 1022.0 0.0 9.5 9.5 0.0
23/10/19 06:37 9.5 76 5.5 0.0 0.0 0 0.0 0.0 1022.0 0.0 9.5 9.5 0.0
23/10/19 06:36 9.6 76 5.6 0.0 0.0 0 0.0 0.0 1022.0 0.0 9.6 9.6 0.0
23/10/19 06:35 9.6 76 5.6 0.0 0.0 0 0.0 0.0 1022.0 0.0 9.6 9.6 0.0
23/10/19 06:34 9.6 76 5.6 0.0 0.0 0 0.0 0.0 1022.0 0.0 9.6 9.6 0.0
23/10/19 06:33 9.6 76 5.6 0.0 0.0 0 0.0 0.0 1022.0 0.0 9.6 9.6 0.0
23/10/19 06:32 9.6 76 5.6 0.0 0.0 0 0.0 0.0 1022.0 0.0 9.6 9.6 0.0
23/10/19 06:30 9.6 76 5.6 0.0 0.0 0 0.0 0.0 1022.0 0.0 9.6 9.6 0.0
23/10/19 06:29 9.6 76 5.6 0.0 0.0 0 0.0 0.0 1022.0 0.0 9.6 9.6 0.0
23/10/19 06:28 9.5 76 5.5 0.0 0.0 0 0.0 0.0 1022.0 0.0 9.5 9.5 0.0
23/10/19 06:27 9.5 76 5.5 0.0 0.0 0 0.0 0.0 1022.0 0.0 9.5 9.5 0.0
23/10/19 06:26 9.5 76 5.5 0.0 0.0 0 0.0 0.0 1022.0 0.0 9.5 9.5 0.0
23/10/19 06:25 9.5 76 5.5 0.0 0.0 0 0.0 0.0 1022.0 0.0 9.5 9.5 0.0
23/10/19 06:24 9.4 76 5.4 0.0 0.0 0 0.0 0.0 1022.0 0.0 9.4 9.4 0.0
23/10/19 06:23 9.4 76 5.4 0.0 0.0 0 0.0 0.0 1022.0 0.0 9.4 9.4 0.0
23/10/19 06:22 9.4 76 5.4 0.0 0.0 0 0.0 0.0 1022.0 0.0 9.4 9.4 0.0
23/10/19 06:21 9.3 77 5.5 0.0 0.0 0 0.0 0.0 1022.0 0.0 9.3 9.3 0.0
23/10/19 06:20 9.3 77 5.5 0.0 0.0 0 0.0 0.0 1022.0 0.0 9.3 9.3 0.0
23/10/19 06:19 9.3 77 5.5 0.0 0.0 0 0.0 0.0 1022.0 0.0 9.3 9.3 0.0
23/10/19 06:18 9.3 77 5.5 0.0 0.0 0 0.0 0.0 1022.0 0.0 9.3 9.3 0.0
23/10/19 06:17 9.3 77 5.5 0.0 0.0 0 0.0 0.0 1022.0 0.0 9.3 9.3 0.0
23/10/19 06:14 9.3 78 5.7 0.0 0.0 0 0.0 0.0 1022.0 0.0 9.3 9.3 0.0
23/10/19 06:13 9.3 78 5.7 0.0 0.0 0 0.0 0.0 1022.0 0.0 9.3 9.3 0.0
23/10/19 06:12 9.3 79 5.8 0.0 0.0 0 0.0 0.0 1022.0 0.0 9.3 9.3 0.0
23/10/19 06:11 9.3 79 5.8 0.0 0.0 0 0.0 0.0 1022.0 0.0 9.3 9.3 0.0
23/10/19 06:10 9.3 79 5.8 0.0 0.0 0 0.0 0.0 1022.0 0.0 9.3 9.3 0.0
23/10/19 06:09 9.3 79 5.8 0.0 0.0 0 0.0 0.0 1022.0 0.0 9.3 9.3 0.0
23/10/19 06:08 9.3 79 5.8 0.0 0.0 0 0.0 0.0 1022.0 0.0 9.3 9.3 0.0
23/10/19 06:07 9.3 79 5.8 0.0 0.0 0 0.0 0.0 1021.0 0.0 9.3 9.3 0.0
23/10/19 06:06 9.3 79 5.8 0.0 0.0 0 0.0 0.0 1021.0 0.0 9.3 9.3 0.0
23/10/19 06:05 9.3 79 5.8 0.0 0.0 0 0.0 0.0 1021.0 0.0 9.3 9.3 0.0
23/10/19 06:04 9.2 80 5.9 0.0 0.0 0 0.0 0.0 1021.0 0.0 9.2 9.2 0.0
23/10/19 06:03 9.2 80 5.9 0.0 0.0 0 0.0 0.0 1021.0 0.0 9.2 9.2 0.0
23/10/19 06:02 9.2 80 5.9 0.0 0.0 0 0.0 0.0 1021.0 0.0 9.2 9.2 0.0
23/10/19 05:59 9.3 80 6.0 0.0 0.0 0 0.0 0.0 1021.0 0.0 9.3 9.3 0.0
23/10/19 05:58 9.3 80 6.0 0.0 0.0 0 0.0 0.0 1021.0 0.0 9.3 9.3 0.0
23/10/19 05:57 9.4 80 6.1 0.0 0.0 0 0.0 0.0 1021.0 0.0 9.4 9.4 0.0
23/10/19 05:56 9.4 80 6.1 0.0 0.0 0 0.0 0.0 1021.0 0.0 9.4 9.4 0.0
23/10/19 05:55 9.4 80 6.1 0.0 0.0 0 0.0 0.0 1021.0 0.0 9.4 9.4 0.0
23/10/19 05:54 9.4 80 6.1 0.0 0.0 0 0.0 0.0 1021.0 0.0 9.4 9.4 0.0
23/10/19 05:53 9.5 80 6.2 0.0 0.0 0 0.0 0.0 1021.0 0.0 9.5 9.5 0.0
23/10/19 05:52 9.5 80 6.2 0.0 0.0 0 0.0 0.0 1021.0 0.0 9.5 9.5 0.0
23/10/19 05:51 9.5 80 6.2 0.0 0.0 0 0.0 0.0 1021.0 0.0 9.5 9.5 0.0
23/10/19 05:50 9.6 80 6.3 0.0 0.0 0 0.0 0.0 1021.0 0.0 9.6 9.6 0.0
23/10/19 05:49 9.6 80 6.3 0.0 0.0 0 0.0 0.0 1021.0 0.0 9.6 9.6 0.0
23/10/19 05:48 9.6 80 6.3 0.0 0.0 0 0.0 0.0 1021.0 0.0 9.6 9.6 0.0
23/10/19 05:47 9.5 80 6.2 0.0 0.0 0 0.0 0.0 1021.0 0.0 9.5 9.5 0.0
23/10/19 05:45 9.5 79 6.0 0.0 0.0 0 0.0 0.0 1021.0 0.0 9.5 9.5 0.0
23/10/19 05:44 9.5 79 6.0 0.0 0.0 0 0.0 0.0 1021.0 0.0 9.5 9.5 0.0
23/10/19 05:43 9.6 79 6.1 0.0 0.0 0 0.0 0.0 1021.0 0.0 9.6 9.6 0.0
23/10/19 05:42 9.6 79 6.1 0.0 0.0 0 0.0 0.0 1021.0 0.0 9.6 9.6 0.0
23/10/19 05:41 9.6 79 6.1 0.0 0.0 0 0.0 0.0 1021.0 0.0 9.6 9.6 0.0
23/10/19 05:40 9.5 79 6.0 0.0 0.0 0 0.0 0.0 1021.0 0.0 9.5 9.5 0.0
23/10/19 05:39 9.5 79 6.0 0.0 0.0 0 0.0 0.0 1021.0 0.0 9.5 9.5 0.0
23/10/19 05:38 9.5 78 5.9 0.0 0.0 0 0.0 0.0 1021.0 0.0 9.5 9.5 0.0
23/10/19 05:37 9.5 78 5.9 0.0 0.0 0 0.0 0.0 1021.0 0.0 9.4 9.5 0.0
23/10/19 05:36 9.4 79 5.9 0.0 0.0 0 0.0 0.0 1021.0 0.0 9.4 9.4 0.0
23/10/19 05:35 9.4 79 5.9 0.0 0.0 0 0.0 0.0 1021.0 0.0 9.4 9.4 0.0
23/10/19 05:34 9.4 79 5.9 0.0 0.0 0 0.0 0.0 1021.0 0.0 9.4 9.4 0.0
23/10/19 05:33 9.4 79 5.9 0.0 0.0 0 0.0 0.0 1021.0 0.0 9.4 9.4 0.0
23/10/19 05:32 9.4 79 5.9 0.0 0.0 0 0.0 0.0 1021.0 0.0 9.4 9.4 0.0
23/10/19 05:30 9.3 80 6.0 0.0 0.0 0 0.0 0.0 1021.0 0.0 9.3 9.3 0.0
23/10/19 05:29 9.3 80 6.0 0.0 0.0 0 0.0 0.0 1021.0 0.0 9.3 9.3 0.0
23/10/19 05:28 9.3 81 6.2 0.0 0.0 0 0.0 0.0 1021.0 0.0 9.3 9.3 0.0
23/10/19 05:27 9.3 81 6.2 0.0 0.0 0 0.0 0.0 1021.0 0.0 9.3 9.3 0.0
23/10/19 05:26 9.3 81 6.2 0.0 0.0 0 0.0 0.0 1021.0 0.0 9.3 9.3 0.0
23/10/19 05:25 9.3 82 6.4 0.0 0.0 0 0.0 0.0 1021.0 0.0 9.3 9.3 0.0
23/10/19 05:24 9.4 82 6.5 0.0 0.0 0 0.0 0.0 1021.0 0.0 9.4 9.4 0.0
23/10/19 05:23 9.4 82 6.5 0.0 0.0 0 0.0 0.0 1021.0 0.0 9.4 9.4 0.0
23/10/19 05:22 9.4 82 6.5 0.0 0.0 0 0.0 0.0 1020.0 0.0 9.4 9.4 0.0
23/10/19 05:21 9.4 82 6.5 0.0 0.0 0 0.0 0.0 1020.0 0.0 9.4 9.4 0.0
23/10/19 05:20 9.4 82 6.5 0.0 0.0 0 0.0 0.0 1020.0 0.0 9.4 9.4 0.0
23/10/19 05:19 9.4 82 6.5 0.0 0.0 0 0.0 0.0 1020.0 0.0 9.4 9.4 0.0
23/10/19 05:18 9.4 82 6.5 0.0 0.0 0 0.0 0.0 1020.0 0.0 9.4 9.4 0.0
23/10/19 05:17 9.5 82 6.6 0.0 0.0 0 0.0 0.0 1020.0 0.0 9.5 9.5 0.0
23/10/19 05:15 9.5 82 6.6 0.0 0.0 0 0.0 0.0 1020.0 0.0 9.5 9.5 0.0
23/10/19 05:14 9.5 82 6.6 0.0 0.0 0 0.0 0.0 1020.0 0.0 9.5 9.5 0.0
23/10/19 05:13 9.5 82 6.6 0.0 0.0 0 0.0 0.0 1020.0 0.0 9.5 9.5 0.0
23/10/19 05:12 9.5 82 6.6 0.0 0.0 0 0.0 0.0 1020.0 0.0 9.5 9.5 0.0
23/10/19 05:11 9.5 82 6.6 0.0 0.0 0 0.0 0.0 1020.0 0.0 9.5 9.5 0.0
23/10/19 05:10 9.4 81 6.3 0.0 0.0 0 0.0 0.0 1020.0 0.0 9.4 9.4 0.0
23/10/19 05:09 9.4 81 6.3 0.0 0.0 0 0.0 0.0 1020.0 0.0 9.4 9.4 0.0
23/10/19 05:08 9.4 81 6.3 0.0 0.0 0 0.0 0.0 1020.0 0.0 9.4 9.4 0.0
23/10/19 05:07 9.4 80 6.1 0.0 0.0 0 0.0 0.0 1021.0 0.0 9.4 9.4 0.0
23/10/19 05:06 9.3 79 5.8 0.0 0.0 0 0.0 0.0 1021.0 0.0 9.3 9.3 0.0
23/10/19 05:05 9.3 79 5.8 0.0 0.0 0 0.0 0.0 1021.0 0.0 9.3 9.3 0.0
23/10/19 05:04 9.3 78 5.7 0.0 0.0 0 0.0 0.0 1021.0 0.0 9.3 9.3 0.0
23/10/19 05:03 9.3 78 5.7 0.0 0.0 0 0.0 0.0 1021.0 0.0 9.3 9.3 0.0
23/10/19 05:02 9.3 78 5.7 0.0 0.0 0 0.0 0.0 1021.0 0.0 9.3 9.3 0.0
23/10/19 04:51 9.6 78 5.9 0.0 0.0 0 0.0 0.0 1021.0 0.0 9.6 9.6 0.0
23/10/19 04:50 9.6 78 5.9 0.0 0.0 0 0.0 0.0 1021.0 0.0 9.6 9.6 0.0
23/10/19 04:49 9.6 78 5.9 0.0 0.0 0 0.0 0.0 1021.0 0.0 9.6 9.6 0.0
23/10/19 04:48 9.6 79 6.1 0.0 0.0 0 0.0 0.0 1021.0 0.0 9.6 9.6 0.0
23/10/19 04:47 9.6 79 6.1 0.0 0.0 0 0.0 0.0 1021.0 0.0 9.6 9.6 0.0
23/10/19 04:44 9.6 79 6.1 0.0 0.0 0 0.0 0.0 1021.0 0.0 9.6 9.6 0.0
23/10/19 04:43 9.6 79 6.1 0.0 0.0 0 0.0 0.0 1021.0 0.0 9.6 9.6 0.0
23/10/19 04:42 9.5 79 6.0 0.0 0.0 0 0.0 0.0 1021.0 0.0 9.5 9.5 0.0
23/10/19 04:41 9.5 79 6.0 0.0 0.0 0 0.0 0.0 1021.0 0.0 9.5 9.5 0.0
23/10/19 04:40 9.5 78 5.9 0.0 0.0 0 0.0 0.0 1021.0 0.0 9.5 9.5 0.0
23/10/19 04:39 9.5 78 5.9 0.0 0.0 0 0.0 0.0 1021.0 0.0 9.5 9.5 0.0
23/10/19 04:38 9.5 78 5.9 0.0 0.0 0 0.0 0.0 1021.0 0.0 9.5 9.5 0.0
23/10/19 04:37 9.6 78 5.9 0.0 0.0 0 0.0 0.0 1020.0 0.0 9.6 9.6 0.0
23/10/19 04:36 9.6 79 6.1 0.0 0.0 0 0.0 0.0 1020.0 0.0 9.6 9.6 0.0
23/10/19 04:35 9.6 79 6.1 0.0 0.0 0 0.0 0.0 1020.0 0.0 9.6 9.6 0.0
23/10/19 04:34 9.7 79 6.2 0.0 0.0 0 0.0 0.0 1020.0 0.0 9.7 9.7 0.0
23/10/19 04:33 9.7 79 6.2 0.0 0.0 0 0.0 0.0 1020.0 0.0 9.7 9.7 0.0
23/10/19 04:32 9.7 79 6.2 0.0 0.0 0 0.0 0.0 1020.0 0.0 9.7 9.7 0.0
23/10/19 04:30 9.7 79 6.2 0.0 0.0 0 0.0 0.0 1020.0 0.0 9.7 9.7 0.0
23/10/19 04:29 9.8 79 6.3 0.0 0.0 0 0.0 0.0 1020.0 0.0 9.8 9.8 0.0
23/10/19 04:28 9.8 80 6.5 0.0 0.0 0 0.0 0.0 1020.0 0.0 9.8 9.8 0.0
23/10/19 04:27 9.8 80 6.5 0.0 0.0 0 0.0 0.0 1020.0 0.0 9.8 9.8 0.0
23/10/19 04:26 9.8 80 6.5 0.0 0.0 0 0.0 0.0 1020.0 0.0 9.8 9.8 0.0
23/10/19 04:25 9.9 80 6.6 0.0 0.0 0 0.0 0.0 1020.0 0.0 9.9 9.9 0.0
23/10/19 04:24 9.9 80 6.6 0.0 0.0 0 0.0 0.0 1020.0 0.0 9.9 9.9 0.0
23/10/19 04:23 9.8 80 6.5 0.0 0.0 0 0.0 0.0 1020.0 0.0 9.8 9.8 0.0
23/10/19 04:22 9.8 80 6.5 0.0 0.0 0 0.0 0.0 1020.0 0.0 9.8 9.8 0.0
23/10/19 04:21 9.8 79 6.3 0.0 0.0 0 0.0 0.0 1020.0 0.0 9.8 9.8 0.0
23/10/19 04:20 9.8 79 6.3 0.0 0.0 0 0.0 0.0 1020.0 0.0 9.8 9.8 0.0
23/10/19 04:19 9.8 79 6.3 0.0 0.0 0 0.0 0.0 1020.0 0.0 9.8 9.8 0.0
23/10/19 04:18 9.7 79 6.2 0.0 0.0 0 0.0 0.0 1020.0 0.0 9.7 9.7 0.0
23/10/19 04:17 9.7 80 6.4 0.0 0.0 0 0.0 0.0 1020.0 0.0 9.7 9.7 0.0
23/10/19 04:15 9.6 80 6.3 0.0 0.0 0 0.0 0.0 1020.0 0.0 9.6 9.6 0.0
23/10/19 04:14 9.6 80 6.3 0.0 0.0 0 0.0 0.0 1020.0 0.0 9.6 9.6 0.0
23/10/19 04:13 9.6 80 6.3 0.0 0.0 0 0.0 0.0 1020.0 0.0 9.6 9.6 0.0
23/10/19 04:12 9.7 80 6.4 0.0 0.0 0 0.0 0.0 1020.0 0.0 9.7 9.7 0.0
23/10/19 04:11 9.7 80 6.4 0.0 0.0 0 0.0 0.0 1020.0 0.0 9.7 9.7 0.0
23/10/19 04:10 9.7 81 6.6 0.0 0.0 0 0.0 0.0 1020.0 0.0 9.7 9.7 0.0
23/10/19 04:09 9.7 81 6.6 0.0 0.0 0 0.0 0.0 1020.0 0.0 9.7 9.7 0.0
23/10/19 04:08 9.7 81 6.6 0.0 0.0 0 0.0 0.0 1020.0 0.0 9.7 9.7 0.0
23/10/19 04:07 9.7 81 6.6 0.0 0.0 0 0.0 0.0 1020.0 0.0 9.7 9.7 0.0
23/10/19 04:06 9.7 82 6.8 0.0 0.0 0 0.0 0.0 1020.0 0.0 9.6 9.7 0.0
23/10/19 04:05 9.6 82 6.7 0.0 0.0 0 0.0 0.0 1020.0 0.0 9.6 9.6 0.0
23/10/19 04:04 9.5 82 6.6 0.0 0.0 0 0.0 0.0 1020.0 0.0 9.5 9.5 0.0
23/10/19 04:03 9.5 82 6.6 0.0 0.0 0 0.0 0.0 1020.0 0.0 9.5 9.5 0.0
23/10/19 04:02 9.5 82 6.6 0.0 0.0 0 0.0 0.0 1020.0 0.0 9.5 9.5 0.0
23/10/19 04:00 9.5 83 6.8 0.0 0.0 0 0.0 0.0 1020.0 0.0 9.5 9.5 0.0
23/10/19 03:59 9.5 83 6.8 0.0 0.0 0 0.0 0.0 1020.0 0.0 9.4 9.5 0.0
23/10/19 03:58 9.4 83 6.7 0.0 0.0 0 0.0 0.0 1020.0 0.0 9.4 9.4 0.0
23/10/19 03:57 9.4 83 6.7 0.0 0.0 0 0.0 0.0 1020.0 0.0 9.4 9.4 0.0
23/10/19 03:56 9.4 83 6.7 0.0 0.0 0 0.0 0.0 1020.0 0.0 9.4 9.4 0.0
23/10/19 03:55 9.4 83 6.7 0.0 0.0 0 0.0 0.0 1020.0 0.0 9.4 9.4 0.0
23/10/19 03:54 9.4 84 6.8 0.0 0.0 0 0.0 0.0 1020.0 0.0 9.4 9.4 0.0
23/10/19 03:53 9.4 84 6.8 0.0 0.0 0 0.0 0.0 1020.0 0.0 9.4 9.4 0.0
23/10/19 03:52 9.4 84 6.8 0.0 0.0 0 0.0 0.0 1021.0 0.0 9.4 9.4 0.0
23/10/19 03:51 9.4 84 6.8 0.0 0.0 0 0.0 0.0 1021.0 0.0 9.5 9.4 0.0
23/10/19 03:50 9.5 84 6.9 0.0 0.0 0 0.0 0.0 1021.0 0.0 9.5 9.5 0.0
23/10/19 03:49 9.5 84 6.9 0.0 0.0 0 0.0 0.0 1021.0 0.0 9.5 9.5 0.0
23/10/19 03:48 9.5 84 6.9 0.0 0.0 0 0.0 0.0 1021.0 0.0 9.5 9.5 0.0
23/10/19 03:47 9.6 84 7.0 0.0 0.0 0 0.0 0.0 1021.0 0.0 9.6 9.6 0.0
23/10/19 03:45 9.6 84 7.0 0.0 0.0 0 0.0 0.0 1021.0 0.0 9.7 9.6 0.0
23/10/19 03:44 9.7 84 7.1 0.0 0.0 0 0.0 0.0 1021.0 0.0 9.7 9.7 0.0
23/10/19 03:43 9.7 84 7.1 0.0 0.0 0 0.0 0.0 1021.0 0.0 9.7 9.7 0.0
23/10/19 03:42 9.7 85 7.3 0.0 0.0 0 0.0 0.0 1021.0 0.0 9.7 9.7 0.0
23/10/19 03:41 9.7 85 7.3 0.0 0.0 0 0.0 0.0 1021.0 0.0 9.7 9.7 0.0
23/10/19 03:40 9.7 85 7.3 0.0 0.0 0 0.0 0.0 1021.0 0.0 9.7 9.7 0.0
23/10/19 03:39 9.7 85 7.3 0.0 0.0 0 0.0 0.0 1021.0 0.0 9.7 9.7 0.0
23/10/19 03:38 9.7 85 7.3 0.0 0.0 0 0.0 0.0 1021.0 0.0 9.7 9.7 0.0
23/10/19 03:37 9.7 85 7.3 0.0 0.0 0 0.0 0.0 1021.0 0.0 9.7 9.7 0.0
23/10/19 03:36 9.7 85 7.3 0.0 0.0 0 0.0 0.0 1021.0 0.0 9.7 9.7 0.0
23/10/19 03:35 9.7 85 7.3 0.0 0.0 0 0.0 0.0 1021.0 0.0 9.7 9.7 0.0
23/10/19 03:34 9.7 85 7.3 0.0 0.0 0 0.0 0.0 1021.0 0.0 9.7 9.7 0.0
23/10/19 03:33 9.7 85 7.3 0.0 0.0 0 0.0 0.0 1021.0 0.0 9.7 9.7 0.0
23/10/19 03:32 9.7 85 7.3 0.0 0.0 0 0.0 0.0 1021.0 0.0 9.7 9.7 0.0
23/10/19 03:30 9.8 85 7.4 0.0 0.0 0 0.0 0.0 1021.0 0.0 9.8 9.8 0.0
23/10/19 03:29 9.8 85 7.4 0.0 0.0 0 0.0 0.0 1021.0 0.0 9.8 9.8 0.0
23/10/19 03:28 9.8 85 7.4 0.0 0.0 0 0.0 0.0 1021.0 0.0 9.8 9.8 0.0
23/10/19 03:27 9.8 85 7.4 0.0 0.0 0 0.0 0.0 1021.0 0.0 9.8 9.8 0.0
23/10/19 03:26 9.9 85 7.5 0.0 0.0 0 0.0 0.0 1021.0 0.0 9.9 9.9 0.0
23/10/19 03:25 9.9 85 7.5 0.0 0.0 0 0.0 0.0 1021.0 0.0 9.9 9.9 0.0
23/10/19 03:24 10.0 85 7.6 0.0 0.0 0 0.0 0.0 1021.0 0.0 10.0 10.0 0.0
23/10/19 03:23 10.0 85 7.6 0.0 0.0 0 0.0 0.0 1021.0 0.0 10.0 10.0 0.0
23/10/19 03:22 10.0 85 7.6 0.0 0.0 0 0.0 0.0 1021.0 0.0 10.0 10.0 0.0
23/10/19 03:21 10.0 85 7.6 0.0 0.0 0 0.0 0.0 1021.0 0.0 10.1 10.0 0.0
23/10/19 03:20 10.1 85 7.7 0.0 0.0 0 0.0 0.0 1021.0 0.0 10.1 10.1 0.0
23/10/19 03:19 10.1 85 7.7 0.0 0.0 0 0.0 0.0 1021.0 0.0 10.1 10.1 0.0
23/10/19 03:15 10.2 85 7.8 0.0 0.0 0 0.0 0.0 1021.0 0.0 10.2 10.2 0.0
23/10/19 03:14 10.2 85 7.8 0.0 0.0 0 0.0 0.0 1021.0 0.0 10.2 10.2 0.0
23/10/19 03:13 10.2 85 7.8 0.0 0.0 0 0.0 0.0 1021.0 0.0 10.1 10.2 0.0
23/10/19 03:12 10.1 85 7.7 0.0 0.0 0 0.0 0.0 1021.0 0.0 10.1 10.1 0.0
23/10/19 03:11 10.1 85 7.7 0.0 0.0 0 0.0 0.0 1021.0 0.0 10.1 10.1 0.0
23/10/19 03:10 10.2 85 7.8 0.0 0.0 0 0.0 0.0 1021.0 0.0 10.2 10.2 0.0
23/10/19 03:09 10.2 85 7.8 0.0 0.0 0 0.0 0.0 1021.0 0.0 10.2 10.2 0.0
23/10/19 03:08 10.3 85 7.9 0.0 0.0 0 0.0 0.0 1021.0 0.0 10.3 10.3 0.0
23/10/19 03:07 10.3 85 7.9 0.0 0.0 0 0.0 0.0 1022.0 0.0 10.3 10.3 0.0
23/10/19 03:06 10.3 85 7.9 0.0 0.0 0 0.0 0.0 1022.0 0.0 10.3 10.3 0.0
23/10/19 03:05 10.3 85 7.9 0.0 0.0 0 0.0 0.0 1022.0 0.0 10.3 10.3 0.0
23/10/19 03:04 10.2 85 7.8 0.0 0.0 0 0.0 0.0 1022.0 0.0 10.2 10.2 0.0
23/10/19 03:03 10.2 85 7.8 0.0 0.0 0 0.0 0.0 1022.0 0.0 10.2 10.2 0.0
23/10/19 03:02 10.2 85 7.8 0.0 0.0 0 0.0 0.0 1022.0 0.0 10.2 10.2 0.0
23/10/19 03:00 10.1 85 7.7 0.0 0.0 0 0.0 0.0 1022.0 0.0 10.1 10.1 0.0
23/10/19 02:59 10.1 85 7.7 0.0 0.0 0 0.0 0.0 1022.0 0.0 10.1 10.1 0.0
23/10/19 02:58 10.1 85 7.7 0.0 0.0 0 0.0 0.0 1022.0 0.0 10.1 10.1 0.0
23/10/19 02:57 10.1 85 7.7 0.0 0.0 0 0.0 0.0 1022.0 0.0 10.1 10.1 0.0
23/10/19 02:56 10.1 85 7.7 0.0 0.0 0 0.0 0.0 1022.0 0.0 10.1 10.1 0.0
23/10/19 02:55 10.1 85 7.7 0.0 0.0 0 0.0 0.0 1022.0 0.0 10.1 10.1 0.0
23/10/19 02:54 10.1 85 7.7 0.0 0.0 0 0.0 0.0 1022.0 0.0 10.1 10.1 0.0
23/10/19 02:53 10.1 85 7.7 0.0 0.0 0 0.0 0.0 1022.0 0.0 10.1 10.1 0.0
23/10/19 02:52 10.2 85 7.8 0.0 0.0 0 0.0 0.0 1022.0 0.0 10.2 10.2 0.0
23/10/19 02:51 10.2 85 7.8 0.0 0.0 0 0.0 0.0 1022.0 0.0 10.2 10.2 0.0
23/10/19 02:50 10.2 85 7.8 0.0 0.0 0 0.0 0.0 1022.0 0.0 10.3 10.2 0.0
23/10/19 02:49 10.3 85 7.9 0.0 0.0 0 0.0 0.0 1022.0 0.0 10.3 10.3 0.0
23/10/19 02:48 10.3 85 7.9 0.0 0.0 0 0.0 0.0 1022.0 0.0 10.3 10.3 0.0
23/10/19 02:47 10.4 85 8.0 0.0 0.0 0 0.0 0.0 1022.0 0.0 10.4 10.4 0.0
23/10/19 02:45 10.4 85 8.0 0.0 0.0 0 0.0 0.0 1022.0 0.0 10.4 10.4 0.0
23/10/19 02:44 10.5 85 8.1 0.0 0.0 0 0.0 0.0 1022.0 0.0 10.5 10.5 0.0
23/10/19 02:43 10.5 85 8.1 0.0 0.0 0 0.0 0.0 1022.0 0.0 10.5 10.5 0.0
23/10/19 02:42 10.4 85 8.0 0.0 0.0 0 0.0 0.0 1022.0 0.0 10.4 10.4 0.0
23/10/19 02:41 10.5 85 8.1 0.0 0.0 0 0.0 0.0 1022.0 0.0 10.5 10.5 0.0
23/10/19 02:40 10.5 85 8.1 0.0 0.0 0 0.0 0.0 1022.0 0.0 10.5 10.5 0.0
23/10/19 02:39 10.4 85 8.0 0.0 0.0 0 0.0 0.0 1022.0 0.0 10.4 10.4 0.0
23/10/19 02:38 10.5 85 8.1 0.0 0.0 0 0.0 0.0 1022.0 0.0 10.5 10.5 0.0
23/10/19 02:37 10.5 85 8.1 0.0 0.0 0 0.0 0.0 1022.0 0.0 10.5 10.5 0.0
23/10/19 02:36 10.5 85 8.1 0.0 0.0 0 0.0 0.0 1022.0 0.0 10.5 10.5 0.0
23/10/19 02:35 10.5 85 8.1 0.0 0.0 0 0.0 0.0 1022.0 0.0 10.6 10.5 0.0
23/10/19 02:34 10.6 85 8.2 0.0 0.0 0 0.0 0.0 1022.0 0.0 10.6 10.6 0.0
23/10/19 02:33 10.7 85 8.3 0.0 0.0 0 0.0 0.0 1022.0 0.0 10.7 10.7 0.0
23/10/19 02:32 10.6 85 8.2 0.0 0.0 0 0.0 0.0 1022.0 0.0 10.6 10.6 0.0
23/10/19 02:29 10.7 84 8.1 0.0 0.0 0 0.0 0.0 1022.0 0.0 10.7 10.7 0.0
23/10/19 02:28 10.7 84 8.1 0.0 0.0 0 0.0 0.0 1022.0 0.0 10.7 10.7 0.0
23/10/19 02:27 10.7 84 8.1 0.0 0.0 0 0.0 0.0 1022.0 0.0 10.7 10.7 0.0
23/10/19 02:26 10.6 84 8.0 0.0 0.0 0 0.0 0.0 1022.0 0.0 10.6 10.6 0.0
23/10/19 02:25 10.7 84 8.1 0.0 0.0 0 0.0 0.0 1022.0 0.0 10.7 10.7 0.0
23/10/19 02:24 10.7 84 8.1 0.0 0.0 0 0.0 0.0 1022.0 0.0 10.7 10.7 0.0
23/10/19 02:23 10.7 84 8.1 0.0 0.0 0 0.0 0.0 1022.0 0.0 10.7 10.7 0.0
23/10/19 02:22 10.8 84 8.2 0.0 0.0 0 0.0 0.0 1022.0 0.0 10.8 10.8 0.0
23/10/19 02:21 10.8 84 8.2 0.0 0.0 0 0.0 0.0 1022.0 0.0 10.8 10.8 0.0
23/10/19 02:20 10.8 84 8.2 0.0 0.0 0 0.0 0.0 1022.0 0.0 10.9 10.8 0.0
23/10/19 02:19 10.9 84 8.3 0.0 0.0 0 0.0 0.0 1022.0 0.0 10.9 10.9 0.0
23/10/19 02:18 10.9 84 8.3 0.0 0.0 0 0.0 0.0 1022.0 0.0 10.9 10.9 0.0
23/10/19 02:17 10.9 85 8.5 0.0 0.0 0 0.0 0.0 1022.0 0.0 10.9 10.9 0.0
23/10/19 02:10 11.0 84 8.4 0.0 0.0 0 0.0 0.0 1022.0 0.0 11.0 11.0 0.0
23/10/19 02:09 11.0 84 8.4 0.0 0.0 0 0.0 0.0 1022.0 0.0 11.0 11.0 0.0
23/10/19 02:08 11.1 84 8.5 0.0 0.0 0 0.0 0.0 1022.0 0.0 11.1 11.1 0.0
23/10/19 02:07 11.1 84 8.5 0.0 0.0 0 0.0 0.0 1022.0 0.0 11.1 11.1 0.0
23/10/19 02:06 11.1 84 8.5 0.0 0.0 0 0.0 0.0 1022.0 0.0 11.1 11.1 0.0
23/10/19 02:05 11.1 84 8.5 0.0 0.0 0 0.0 0.0 1022.0 0.0 11.1 11.1 0.0
23/10/19 02:04 11.1 84 8.5 0.0 0.0 0 0.0 0.0 1022.0 0.0 11.1 11.1 0.0
23/10/19 02:03 11.1 84 8.5 0.0 0.0 0 0.0 0.0 1022.0 0.0 11.1 11.1 0.0
23/10/19 02:02 11.1 84 8.5 0.0 0.0 0 0.0 0.0 1022.0 0.0 11.1 11.1 0.0
23/10/19 01:59 11.1 84 8.5 0.0 0.0 0 0.0 0.0 1022.0 0.0 11.1 11.1 0.0
23/10/19 01:58 11.1 84 8.5 0.0 0.0 0 0.0 0.0 1022.0 0.0 11.1 11.1 0.0
23/10/19 01:57 11.1 84 8.5 0.0 0.0 0 0.0 0.0 1022.0 0.0 11.1 11.1 0.0
23/10/19 01:56 11.1 84 8.5 0.0 0.0 0 0.0 0.0 1022.0 0.0 11.1 11.1 0.0
23/10/19 01:55 11.1 84 8.5 0.0 0.0 0 0.0 0.0 1022.0 0.0 11.1 11.1 0.0
23/10/19 01:54 11.1 84 8.5 0.0 0.0 0 0.0 0.0 1022.0 0.0 11.1 11.1 0.0
23/10/19 01:53 11.1 84 8.5 0.0 0.0 0 0.0 0.0 1022.0 0.0 11.1 11.1 0.0
23/10/19 01:52 11.1 84 8.5 0.0 0.0 0 0.0 0.0 1023.0 0.0 11.1 11.1 0.0
23/10/19 01:51 11.1 84 8.5 0.0 0.0 0 0.0 0.0 1023.0 0.0 11.1 11.1 0.0
23/10/19 01:50 11.2 84 8.6 0.0 0.0 0 0.0 0.0 1023.0 0.0 11.2 11.2 0.0
23/10/19 01:49 11.2 84 8.6 0.0 0.0 0 0.0 0.0 1023.0 0.0 11.2 11.2 0.0
23/10/19 01:48 11.2 84 8.6 0.0 0.0 0 0.0 0.0 1023.0 0.0 11.2 11.2 0.0
23/10/19 01:47 11.2 84 8.6 0.0 0.0 0 0.0 0.0 1023.0 0.0 11.2 11.2 0.0
23/10/19 01:45 11.2 84 8.6 0.0 0.0 0 0.0 0.0 1023.0 0.0 11.2 11.2 0.0
23/10/19 01:44 11.2 84 8.6 0.0 0.0 0 0.0 0.0 1023.0 0.0 11.2 11.2 0.0
23/10/19 01:43 11.2 84 8.6 0.0 0.0 0 0.0 0.0 1023.0 0.0 11.2 11.2 0.0
23/10/19 01:42 11.2 84 8.6 0.0 0.0 0 0.0 0.0 1023.0 0.0 11.2 11.2 0.0
23/10/19 01:41 11.2 84 8.6 0.0 0.0 0 0.0 0.0 1023.0 0.0 11.2 11.2 0.0
23/10/19 01:40 11.2 84 8.6 0.0 0.0 0 0.0 0.0 1023.0 0.0 11.2 11.2 0.0
23/10/19 01:39 11.2 84 8.6 0.0 0.0 0 0.0 0.0 1023.0 0.0 11.2 11.2 0.0
23/10/19 01:38 11.2 84 8.6 0.0 0.0 0 0.0 0.0 1023.0 0.0 11.2 11.2 0.0
23/10/19 01:37 11.2 84 8.6 0.0 0.0 0 0.0 0.0 1023.0 0.0 11.2 11.2 0.0
23/10/19 01:36 11.2 84 8.6 0.0 0.0 0 0.0 0.0 1023.0 0.0 11.2 11.2 0.0
23/10/19 01:35 11.2 84 8.6 0.0 0.0 0 0.0 0.0 1023.0 0.0 11.2 11.2 0.0
23/10/19 01:34 11.2 84 8.6 0.0 0.0 0 0.0 0.0 1023.0 0.0 11.2 11.2 0.0
23/10/19 01:33 11.1 84 8.5 0.0 0.0 0 0.0 0.0 1023.0 0.0 11.1 11.1 0.0
23/10/19 01:32 11.2 84 8.6 0.0 0.0 0 0.0 0.0 1023.0 0.0 11.2 11.2 0.0
23/10/19 01:29 11.2 84 8.6 0.0 0.0 0 0.0 0.0 1023.0 0.0 11.2 11.2 0.0
23/10/19 01:28 11.2 84 8.6 0.0 0.0 0 0.0 0.0 1023.0 0.0 11.2 11.2 0.0
23/10/19 01:27 11.2 84 8.6 0.0 0.0 0 0.0 0.0 1023.0 0.0 11.2 11.2 0.0
23/10/19 01:26 11.2 83 8.4 0.0 0.0 0 0.0 0.0 1023.0 0.0 11.2 11.2 0.0
23/10/19 01:25 11.2 83 8.4 0.0 0.0 0 0.0 0.0 1023.0 0.0 11.2 11.2 0.0
23/10/19 01:24 11.2 83 8.4 0.0 0.0 0 0.0 0.0 1023.0 0.0 11.2 11.2 0.0
23/10/19 01:23 11.2 83 8.4 0.0 0.0 0 0.0 0.0 1023.0 0.0 11.2 11.2 0.0
23/10/19 01:22 11.2 83 8.4 0.0 0.0 0 0.0 0.0 1023.0 0.0 11.2 11.2 0.0
23/10/19 01:21 11.3 83 8.5 0.0 0.0 0 0.0 0.0 1023.0 0.0 11.3 11.3 0.0
23/10/19 01:20 11.3 83 8.5 0.0 0.0 0 0.0 0.0 1023.0 0.0 11.3 11.3 0.0
23/10/19 01:19 11.3 83 8.5 0.0 0.0 0 0.0 0.0 1023.0 0.0 11.3 11.3 0.0
23/10/19 01:18 11.3 83 8.5 0.0 0.0 0 0.0 0.0 1023.0 0.0 11.3 11.3 0.0
23/10/19 01:17 11.3 83 8.5 0.0 0.0 0 0.0 0.0 1023.0 0.0 11.3 11.3 0.0
23/10/19 01:14 11.3 82 8.3 0.0 0.0 0 0.0 0.0 1023.0 0.0 11.3 11.3 0.0
23/10/19 01:13 11.3 82 8.3 0.0 0.0 0 0.0 0.0 1023.0 0.0 11.3 11.3 0.0
23/10/19 01:12 11.3 82 8.3 0.0 0.0 0 0.0 0.0 1023.0 0.0 11.3 11.3 0.0
23/10/19 01:11 11.3 82 8.3 0.0 0.0 0 0.0 0.0 1023.0 0.0 11.3 11.3 0.0
23/10/19 01:10 11.3 82 8.3 0.0 0.0 0 0.0 0.0 1023.0 0.0 11.3 11.3 0.0
23/10/19 01:09 11.4 82 8.4 0.0 0.0 0 0.0 0.0 1023.0 0.0 11.4 11.4 0.0
23/10/19 01:08 11.4 82 8.4 0.0 0.0 0 0.0 0.0 1023.0 0.0 11.4 11.4 0.0
23/10/19 01:07 11.4 82 8.4 0.0 0.0 0 0.0 0.0 1023.0 0.0 11.4 11.4 0.0
23/10/19 01:06 11.4 82 8.4 0.0 0.0 0 0.0 0.0 1023.0 0.0 11.4 11.4 0.0
23/10/19 01:05 11.4 82 8.4 0.0 0.0 0 0.0 0.0 1023.0 0.0 11.4 11.4 0.0
23/10/19 01:04 11.4 82 8.4 0.0 0.0 0 0.0 0.0 1023.0 0.0 11.5 11.4 0.0
23/10/19 01:03 11.5 82 8.5 0.0 0.0 0 0.0 0.0 1023.0 0.0 11.5 11.5 0.0
23/10/19 01:02 11.5 82 8.5 0.0 0.0 0 0.0 0.0 1023.0 0.0 11.5 11.5 0.0
23/10/19 01:00 11.5 82 8.5 0.0 0.0 0 0.0 0.0 1023.0 0.0 11.5 11.5 0.0
23/10/19 00:59 11.5 82 8.5 0.0 0.0 0 0.0 0.0 1023.0 0.0 11.5 11.5 0.0
23/10/19 00:58 11.5 82 8.5 0.0 0.0 0 0.0 0.0 1023.0 0.0 11.5 11.5 0.0
23/10/19 00:57 11.5 82 8.5 0.0 0.0 0 0.0 0.0 1023.0 0.0 11.5 11.5 0.0
23/10/19 00:56 11.5 81 8.4 0.0 0.0 0 0.0 0.0 1023.0 0.0 11.5 11.5 0.0
23/10/19 00:55 11.5 81 8.4 0.0 0.0 0 0.0 0.0 1023.0 0.0 11.5 11.5 0.0
23/10/19 00:54 11.5 81 8.4 0.0 0.0 0 0.0 0.0 1023.0 0.0 11.5 11.5 0.0
23/10/19 00:53 11.5 81 8.4 0.0 0.0 0 0.0 0.0 1023.0 0.0 11.5 11.5 0.0
23/10/19 00:52 11.4 81 8.3 0.0 0.0 0 0.0 0.0 1022.0 0.0 11.4 11.4 0.0
23/10/19 00:51 11.5 81 8.4 0.0 0.0 0 0.0 0.0 1022.0 0.0 11.5 11.5 0.0
23/10/19 00:50 11.4 80 8.1 0.0 0.0 0 0.0 0.0 1022.0 0.0 11.4 11.4 0.0
23/10/19 00:49 11.4 80 8.1 0.0 0.0 0 0.0 0.0 1022.0 0.0 11.5 11.4 0.0
23/10/19 00:48 11.5 80 8.2 0.0 0.0 0 0.0 0.0 1022.0 0.0 11.5 11.5 0.0
23/10/19 00:47 11.5 80 8.2 0.0 0.0 0 0.0 0.0 1022.0 0.0 11.5 11.5 0.0
23/10/19 00:45 11.5 80 8.2 0.0 0.0 0 0.0 0.0 1022.0 0.0 11.5 11.5 0.0
23/10/19 00:44 11.5 80 8.2 0.0 0.0 0 0.0 0.0 1022.0 0.0 11.5 11.5 0.0
23/10/19 00:43 11.6 80 8.3 0.0 0.0 0 0.0 0.0 1022.0 0.0 11.6 11.6 0.0
23/10/19 00:42 11.6 80 8.3 0.0 0.0 0 0.0 0.0 1022.0 0.0 11.6 11.6 0.0
23/10/19 00:41 11.6 80 8.3 0.0 0.0 0 0.0 0.0 1022.0 0.0 11.6 11.6 0.0
23/10/19 00:40 11.6 80 8.3 0.0 0.0 0 0.0 0.0 1022.0 0.0 11.6 11.6 0.0
23/10/19 00:39 11.6 80 8.3 0.0 0.0 0 0.0 0.0 1022.0 0.0 11.6 11.6 0.0
23/10/19 00:38 11.6 80 8.3 0.0 0.0 0 0.0 0.0 1022.0 0.0 11.6 11.6 0.0
23/10/19 00:37 11.7 80 8.4 0.0 0.0 0 0.0 0.0 1023.0 0.0 11.7 11.7 0.0
23/10/19 00:36 11.7 80 8.4 0.0 0.0 0 0.0 0.0 1023.0 0.0 11.7 11.7 0.0
23/10/19 00:35 11.7 80 8.4 0.0 0.0 0 0.0 0.0 1023.0 0.0 11.7 11.7 0.0
23/10/19 00:34 11.7 80 8.4 0.0 0.0 0 0.0 0.0 1023.0 0.0 11.7 11.7 0.0
23/10/19 00:33 11.7 80 8.4 0.0 0.0 0 0.0 0.0 1023.0 0.0 11.7 11.7 0.0
23/10/19 00:32 11.7 79 8.2 0.0 0.0 0 0.0 0.0 1023.0 0.0 11.7 11.7 0.0
23/10/19 00:30 11.7 79 8.2 0.0 0.0 0 0.0 0.0 1023.0 0.0 11.7 11.7 0.0
23/10/19 00:29 11.7 79 8.2 0.0 0.0 0 0.0 0.0 1023.0 0.0 11.7 11.7 0.0
23/10/19 00:28 11.7 79 8.2 0.0 0.0 0 0.0 0.0 1023.0 0.0 11.7 11.7 0.0
23/10/19 00:27 11.8 79 8.3 0.0 0.0 0 0.0 0.0 1023.0 0.0 11.8 11.8 0.0
23/10/19 00:26 11.8 80 8.5 0.0 0.0 0 0.0 0.0 1023.0 0.0 11.8 11.8 0.0
23/10/19 00:25 11.9 80 8.6 0.0 0.0 0 0.0 0.0 1023.0 0.0 11.9 11.9 0.0
23/10/19 00:24 11.8 79 8.3 0.0 0.0 0 0.0 0.0 1023.0 0.0 11.8 11.8 0.0
23/10/19 00:23 11.8 79 8.3 0.0 0.0 0 0.0 0.0 1023.0 0.0 11.8 11.8 0.0
23/10/19 00:22 11.8 79 8.3 0.0 0.0 0 0.0 0.0 1023.0 0.0 11.8 11.8 0.0
23/10/19 00:21 11.9 79 8.4 0.0 0.0 0 0.0 0.0 1023.0 0.0 11.9 11.9 0.0
23/10/19 00:20 11.9 79 8.4 0.0 0.0 0 0.0 0.0 1023.0 0.0 11.9 11.9 0.0
23/10/19 00:19 11.9 78 8.2 0.0 0.0 0 0.0 0.0 1023.0 0.0 11.8 11.9 0.0
23/10/19 00:18 11.8 78 8.1 0.0 0.0 0 0.0 0.0 1023.0 0.0 11.8 11.8 0.0
23/10/19 00:17 11.9 78 8.2 0.0 0.0 0 0.0 0.0 1023.0 0.0 11.9 11.9 0.0
23/10/19 00:15 11.9 78 8.2 0.0 0.0 0 0.0 0.0 1023.0 0.0 11.9 11.9 0.0
23/10/19 00:14 11.9 78 8.2 0.0 0.0 0 0.0 0.0 1023.0 0.0 11.9 11.9 0.0
23/10/19 00:13 11.9 78 8.2 0.0 0.0 0 0.0 0.0 1023.0 0.0 11.9 11.9 0.0
23/10/19 00:12 11.9 78 8.2 0.0 0.0 0 0.0 0.0 1023.0 0.0 11.9 11.9 0.0
23/10/19 00:11 11.9 78 8.2 0.0 0.0 0 0.0 0.0 1023.0 0.0 11.9 11.9 0.0
23/10/19 00:10 11.9 77 8.0 0.0 0.0 0 0.0 0.0 1023.0 0.0 11.9 11.9 0.0
23/10/19 00:09 12.0 77 8.1 0.0 0.0 0 0.0 0.0 1023.0 0.0 12.0 12.0 0.0
23/10/19 00:08 12.0 77 8.1 0.0 0.0 0 0.0 0.0 1023.0 0.0 12.0 12.0 0.0
23/10/19 00:07 12.0 77 8.1 0.0 0.0 0 0.0 0.0 1023.0 0.0 12.0 12.0 0.0
23/10/19 00:06 12.0 77 8.1 0.0 0.0 0 0.0 0.0 1023.0 0.0 12.0 12.0 0.0
23/10/19 00:05 12.0 77 8.1 0.0 0.0 0 0.0 0.0 1023.0 0.0 12.0 12.0 0.0
23/10/19 00:04 12.0 76 7.9 0.0 0.0 0 0.0 0.0 1023.0 0.0 12.0 12.0 0.0
23/10/19 00:03 12.0 76 7.9 0.0 0.0 0 0.0 0.0 1023.0 0.0 12.0 12.0 0.0
23/10/19 00:02 12.0 76 7.9 0.0 0.0 0 0.0 0.0 1023.0 0.0 12.0 12.0 0.0
  Back to Top


This site is NOT a professional weather site.
Never base important decisions on this or any weather information obtained from the Internet.
Website Supported by Cumulus. Contact me Admin